GFSNW_250_spd_000.txt.gz
Wind_Speed
52 57 54 32 19 27 31 27 35 39 30 42 44 44 37 50 60 60 60 63 63 59 56 53 50 51 53 52 52 51 53 51 49 47 47 47 48 48 45 44 44 45 44 49
47 52 57 40 30 21 22 17 25 27 36 36 35 38 39 44 46 59 56 57 59 56 50 48 49 48 49 54 50 47 49 50 50 50 50 50 49 48 48 47 50 54 48 54
38 46 49 50 31 27 21 23 29 31 37 43 39 37 42 46 51 52 54 55 55 54 50 46 45 48 46 46 49 48 49 51 51 52 51 50 53 50 53 53 53 54 58 61
29 37 44 49 42 31 26 19 24 29 32 33 37 48 45 50 45 43 46 53 60 57 56 49 45 46 47 46 46 45 46 47 49 52 51 48 48 51 56 58 61 57 62 60
21 28 34 41 46 40 29 25 28 23 19 26 39 47 56 49 48 47 48 48 51 59 60 56 49 44 45 47 49 50 50 50 50 51 53 55 54 58 61 65 68 67 70 69
15 18 24 30 36 40 38 27 24 19 23 29 29 31 29 44 47 46 45 51 53 53 57 60 56 51 50 51 53 52 53 55 55 54 59 60 57 64 67 70 74 76 75 77
11 10 15 21 26 30 34 34 30 24 19 17 17 15 22 35 43 42 45 48 51 54 57 61 63 60 58 57 56 58 62 63 61 60 64 63 67 71 75 79 82 84 83 84
15 12 11 13 16 19 22 24 26 26 24 21 15 12 14 22 35 50 47 45 47 47 48 51 59 61 60 62 66 68 69 69 70 70 74 72 73 79 83 84 83 91 93 89
12 14 14 12 10 11 12 14 17 17 19 19 17 14 11 8 14 22 40 56 53 50 52 50 50 52 61 60 60 66 69 73 76 73 73 76 78 87 86 86 83 89 94 96
7 7 8 9 10 10 8 8 9 8 8 8 8 7 6 3 2 7 16 37 58 60 61 64 63 64 62 65 63 64 65 68 73 75 77 78 88 90 90 92 92 96 101 104
10 7 7 6 5 4 6 7 7 7 7 8 9 10 8 7 8 10 13 18 25 34 38 49 69 72 64 63 71 76 78 79 79 81 82 83 92 91 93 94 94 95 94 93
15 14 10 11 11 12 11 9 8 10 12 11 12 14 17 18 21 23 23 22 22 26 31 40 50 61 66 71 69 75 73 72 75 77 79 82 84 83 86 87 87 87 88 91
25 21 18 18 17 17 18 18 18 19 20 22 21 22 24 27 30 31 33 32 34 37 37 39 41 45 49 53 57 60 65 72 76 79 83 89 87 88 91 91 95 99 102 104
30 28 25 23 22 22 21 22 24 26 27 25 23 24 29 34 38 41 42 44 45 44 46 47 50 55 58 60 65 67 77 81 90 85 95 95 98 100 104 107 110 113 115 118
39 37 37 34 34 33 32 31 27 26 28 35 37 41 44 43 45 44 46 48 50 53 54 56 60 65 71 70 70 74 84 95 97 91 99 100 101 110 115 119 122 126 128 130
47 46 44 42 42 42 41 38 34 36 36 39 41 50 53 55 56 58 59 56 55 57 58 60 65 70 76 74 76 82 94 93 99 98 103 105 108 112 110 108 103 101 100 105
54 51 50 48 48 47 44 46 45 44 43 43 43 51 61 66 67 66 67 66 66 68 67 68 74 78 80 81 83 94 94 93 95 98 104 102 102 98 101 104 108 110 109 105
61 58 57 57 57 55 57 54 54 54 54 56 56 60 67 70 71 72 72 73 74 73 74 78 82 84 91 94 100 100 99 105 108 110 114 112 111 109 109 106 104 101 100 102
69 70 70 67 67 64 62 62 62 63 62 64 69 76 75 76 78 78 78 78 75 76 78 83 86 90 97 107 104 107 110 113 115 114 113 114 115 113 114 108 102 101 100 99
76 76 75 76 74 72 72 71 70 69 71 75 78 84 83 83 86 87 89 88 89 89 87 90 91 92 105 110 110 111 113 115 117 115 112 113 114 116 110 100 97 94 94 94
80 80 79 78 79 80 78 77 76 79 81 82 86 88 89 93 93 93 90 90 93 93 96 100 101 106 113 113 112 114 116 121 119 112 112 113 111 105 98 93 92 93 92 91
84 86 86 84 83 82 84 79 83 90 91 92 96 98 98 99 102 99 100 104 104 104 104 107 109 116 114 116 117 118 121 118 117 111 113 105 101 95 89 87 88 89 88 87
92 89 89 86 85 85 88 91 92 96 99 100 99 101 102 104 107 108 110 111 111 111 113 116 121 118 122 123 120 119 117 115 115 109 101 97 91 87 85 85 86 85 85 86
101 98 93 92 89 91 98 101 101 103 104 105 104 106 106 108 112 114 116 116 115 116 119 123 122 123 120 121 121 117 112 111 101 96 93 88 84 82 82 83 84 84 87 88
108 102 100 96 99 101 103 106 108 109 109 109 111 111 112 115 118 117 118 119 118 119 120 121 121 117 116 116 113 109 105 98 94 92 88 84 80 80 82 83 83 84 85 84
110 106 102 101 105 107 109 112 113 114 114 114 115 116 116 116 117 117 116 120 123 123 119 118 114 110 108 110 108 104 96 92 88 84 84 82 81 80 82 83 83 83 82 81
112 106 109 113 110 113 116 116 120 121 118 118 118 119 123 117 116 117 120 125 120 118 115 111 110 109 104 103 100 94 90 87 85 84 84 83 81 80 81 82 82 82 81 80

GFSNW_250_spd_003.txt.gz
Wind_Speed
45 40 29 8 30 40 36 25 30 34 40 40 45 44 38 40 43 44 43 50 54 62 57 54 56 62 63 61 57 56 56 58 56 53 50 49 51 50 48 46 46 46 44 53
42 44 31 19 13 28 30 30 30 23 31 37 37 38 28 30 39 47 47 53 58 58 56 51 51 55 58 60 58 57 55 56 55 54 51 49 50 50 50 48 50 52 48 59
34 43 38 26 12 20 28 31 25 24 28 26 29 32 27 26 41 50 52 55 53 54 53 51 49 51 56 57 59 56 54 53 52 49 48 50 52 54 55 53 55 57 59 61
26 35 41 32 20 13 26 39 33 32 27 25 27 29 29 28 35 51 53 53 53 47 50 52 50 49 50 54 56 56 53 52 52 51 53 54 54 55 57 59 63 60 65 63
18 26 34 40 32 17 17 30 34 36 37 34 34 30 37 34 33 44 49 54 52 52 52 50 48 47 47 46 46 48 51 55 54 57 52 53 55 61 62 64 66 64 65 69
11 17 26 32 37 32 21 16 17 26 28 37 40 41 39 42 42 40 42 46 46 51 52 50 46 46 45 46 46 47 48 49 53 54 55 54 54 60 64 66 68 70 71 74
13 10 15 21 26 30 32 20 15 15 18 16 20 20 36 37 41 42 41 45 47 50 55 52 50 49 45 43 42 44 48 49 50 53 55 57 60 64 67 69 72 75 77 80
12 14 11 12 15 19 23 26 24 14 13 15 15 14 15 18 32 42 44 43 46 51 56 57 53 51 50 49 48 49 49 51 53 58 63 63 66 71 73 75 76 83 85 90
4 6 9 11 10 9 11 14 17 20 20 14 11 10 11 15 19 28 30 32 35 35 42 47 49 53 54 57 57 59 61 62 62 66 66 67 73 78 81 82 83 85 90 95
3 3 2 3 6 8 7 6 7 8 11 12 13 14 12 12 14 17 22 29 31 32 34 38 45 50 54 57 61 62 61 63 67 72 72 70 78 82 85 88 88 90 96 98
11 9 8 6 4 1 1 2 3 4 4 4 4 3 3 5 5 4 4 6 10 15 20 26 41 43 45 47 53 57 53 59 64 68 77 78 83 85 85 88 92 94 94 96
20 17 14 13 12 10 9 7 6 5 4 6 6 5 5 5 6 8 9 10 11 12 14 17 20 27 33 36 39 44 50 57 63 68 69 79 80 81 83 82 82 85 86 92
28 25 21 19 17 17 17 16 15 13 12 12 14 15 16 15 16 16 15 16 19 20 23 27 32 37 40 44 47 49 55 62 63 63 70 75 77 80 81 84 91 96 97 99
35 33 31 28 25 21 22 22 21 18 16 16 17 18 22 22 23 22 21 25 27 30 33 36 41 46 48 51 54 59 71 69 71 73 79 79 85 89 92 95 98 104 107 109
43 41 39 35 32 31 26 26 26 27 25 26 26 26 25 30 28 31 32 32 31 34 38 41 44 51 55 53 54 66 74 77 77 76 84 86 88 93 98 101 103 106 110 112
51 46 43 43 40 39 39 37 35 36 37 39 39 35 33 36 37 37 38 39 42 43 47 50 55 60 62 62 66 81 78 79 81 84 92 93 95 95 100 103 105 106 109 112
57 52 50 50 50 47 46 45 43 43 42 43 47 49 47 49 48 48 49 50 50 51 54 55 60 62 65 66 76 78 82 82 85 90 93 95 100 103 107 108 114 117 122 120
66 60 58 56 56 55 54 51 50 50 50 49 53 60 64 60 59 58 58 57 57 59 60 65 70 69 74 81 87 86 87 91 94 97 101 104 106 108 114 118 121 123 121 119
73 69 65 63 63 61 61 59 58 55 56 56 61 67 68 65 67 67 66 65 68 65 69 75 75 77 85 97 93 94 98 100 102 104 106 110 112 115 117 118 123 122 118 116
78 76 73 70 70 69 67 64 64 63 68 67 68 76 75 76 77 76 75 73 77 74 75 82 81 87 99 103 102 103 107 111 111 111 112 115 114 116 120 120 115 112 111 108
79 79 77 76 76 73 73 71 70 71 71 76 82 84 82 82 84 85 83 81 83 79 80 88 89 90 98 101 104 107 111 114 118 118 116 115 119 118 118 113 111 105 100 99
86 84 84 83 79 77 76 76 81 82 84 84 85 83 84 86 90 90 88 89 89 91 92 93 93 102 103 106 110 115 117 119 115 112 115 117 112 108 108 106 100 95 94 92
92 91 90 86 85 83 81 84 88 90 88 86 85 86 89 90 92 91 92 94 95 97 100 101 108 111 110 114 118 119 122 123 116 118 117 111 106 104 101 93 90 90 88 86
101 97 95 91 87 89 90 94 96 97 96 93 92 93 93 93 95 95 96 99 102 105 106 111 114 114 117 120 122 123 122 117 115 113 112 106 103 99 92 90 88 88 85 84
107 102 97 91 94 98 101 102 102 101 100 99 99 99 98 101 101 101 104 106 106 110 118 117 118 119 122 123 124 126 120 116 111 110 103 99 93 90 91 89 88 87 83 83
110 105 99 100 102 104 105 108 109 108 107 108 109 109 108 106 108 107 109 112 114 121 121 121 124 124 124 126 125 119 114 109 108 104 95 88 87 88 88 86 85 83 81 82
112 108 113 114 114 115 118 117 116 116 114 115 116 113 114 114 112 111 115 122 125 125 126 126 126 127 126 121 116 114 109 104 98 91 86 85 86 87 84 82 82 82 82 82

GFSNW_250_spd_006.txt.gz
Wind_Speed
39 35 28 7 26 28 19 18 19 30 38 39 34 35 36 34 49 47 41 38 35 35 35 33 46 53 50 50 47 38 42 50 52 51 51 50 49 47 43 42 42 43 44 48
33 39 29 15 21 32 30 23 12 28 31 42 39 39 38 37 38 42 41 37 39 37 34 43 46 44 52 52 47 46 44 44 50 51 50 51 51 48 47 46 46 48 47 51
26 34 31 22 4 30 33 28 21 24 28 36 41 38 37 36 37 42 39 41 39 43 39 46 46 50 49 53 53 52 51 50 48 42 44 45 48 50 50 49 50 47 53 52
20 28 35 27 10 20 35 32 26 27 25 25 41 36 30 30 35 38 38 39 41 47 44 48 41 50 52 53 51 50 49 49 48 47 49 50 50 51 50 50 54 51 59 57
13 22 29 32 20 7 23 30 30 26 29 25 35 36 31 22 28 35 40 40 39 40 47 40 42 41 51 56 54 54 51 51 50 50 51 53 55 56 54 53 55 56 59 64
8 14 22 31 32 20 8 22 29 32 29 32 30 33 33 29 28 30 44 46 43 44 48 48 46 44 46 52 54 55 53 52 51 52 52 52 55 57 58 59 60 61 65 69
8 9 14 21 28 31 24 7 10 25 26 27 31 32 31 31 31 31 39 50 47 49 51 50 49 48 46 45 49 54 56 55 58 59 56 54 58 63 62 62 65 68 68 70
6 8 8 11 17 23 29 26 20 9 9 16 22 23 23 33 34 35 41 53 53 52 49 48 47 48 47 47 46 46 46 48 50 51 49 51 58 63 62 66 67 71 72 77
4 5 6 7 8 13 17 21 25 23 16 10 11 17 21 25 28 31 34 50 50 52 47 47 46 46 45 44 44 46 46 46 47 47 48 53 63 62 66 66 69 73 76 80
8 6 2 2 6 8 10 12 15 17 19 21 17 10 10 15 21 22 18 25 26 31 35 35 42 47 48 51 50 50 50 50 55 56 58 62 66 67 69 73 75 79 84 88
15 11 9 7 5 4 5 8 10 12 13 13 13 14 13 11 10 13 16 17 20 23 28 29 31 32 32 34 40 47 50 53 57 58 60 65 70 73 74 76 77 79 83 88
22 18 15 13 12 10 7 5 5 6 9 10 8 8 8 9 9 9 12 12 12 12 12 14 18 21 26 29 33 37 46 47 51 53 52 54 60 62 63 64 68 71 75 81
30 25 21 19 17 17 15 12 11 10 8 6 6 6 6 7 8 9 6 7 9 8 10 12 16 17 20 24 28 36 39 40 43 44 55 60 61 65 64 68 74 78 81 88
40 34 29 26 23 22 20 19 19 18 16 13 13 12 10 12 12 12 13 13 12 12 15 19 23 25 27 30 34 45 43 46 49 55 62 62 68 73 73 77 82 84 88 92
48 44 39 35 31 27 26 27 25 24 24 23 21 18 19 17 18 19 20 19 19 21 24 27 30 33 32 35 41 55 51 54 55 58 65 66 71 76 77 82 84 87 90 95
55 52 47 44 40 36 32 33 33 32 30 30 30 27 29 28 27 27 23 24 26 28 30 32 35 37 39 41 50 58 55 59 63 65 71 74 77 82 85 90 93 96 98 99
64 61 56 52 49 46 41 38 39 40 40 40 38 39 38 37 37 35 34 33 34 37 39 43 46 48 48 51 62 63 65 66 70 73 75 79 84 88 92 95 98 100 105 110
73 70 66 61 57 54 53 50 49 48 47 46 46 48 48 45 43 43 43 44 46 46 46 51 53 51 56 65 70 72 72 74 76 81 85 89 93 97 99 103 105 107 113 115
78 76 74 71 68 63 60 56 54 55 54 54 56 58 59 55 52 52 53 53 53 51 55 59 58 60 65 78 80 81 81 81 84 88 93 98 100 101 106 108 112 116 120 124
80 80 80 78 78 76 72 66 63 60 60 62 64 67 66 64 63 63 62 59 63 62 63 66 64 65 77 84 86 86 90 93 94 96 100 102 107 110 113 116 119 121 123 127
83 81 80 80 81 81 80 75 72 71 69 69 73 75 73 74 74 72 69 67 67 65 66 72 69 71 86 89 89 91 93 96 101 105 110 111 113 114 116 121 123 127 128 119
89 86 84 84 82 80 79 78 80 80 80 79 82 81 80 80 79 77 78 80 77 75 74 76 74 85 89 89 91 93 97 101 105 111 112 115 118 119 123 124 127 129 122 117
95 91 88 83 83 84 79 80 82 83 82 86 85 85 84 83 85 83 83 83 84 83 81 80 88 90 91 93 96 99 102 105 109 115 118 120 122 125 128 132 130 125 116 106
100 98 94 91 87 86 87 87 88 87 86 85 86 89 88 90 90 88 89 87 88 89 89 97 99 96 98 101 103 107 111 115 120 123 124 125 127 127 128 129 125 115 106 102
108 104 103 96 95 95 94 94 95 94 91 92 94 94 94 93 93 94 96 97 95 95 104 102 102 103 104 108 112 115 120 121 124 127 125 128 128 130 129 122 112 106 101 99
117 112 106 105 105 105 106 106 103 102 102 102 102 100 99 99 100 99 101 102 105 110 107 107 107 108 113 118 120 122 125 128 131 132 131 133 131 129 117 109 103 99 97 96
122 114 112 112 113 113 113 113 114 113 112 111 109 106 105 101 100 102 105 110 112 111 110 112 116 117 118 119 122 125 130 131 131 134 133 126 124 117 108 102 97 94 94 93

GFSNW_250_spd_009.txt.gz
Wind_Speed
23 29 30 13 17 25 19 27 26 26 23 30 38 39 35 37 34 27 24 27 24 27 28 30 24 29 34 32 32 41 44 47 48 49 45 42 43 45 45 46 46 46 45 43
20 25 29 17 20 24 20 32 30 26 27 29 41 36 38 39 28 27 29 28 27 25 31 32 30 31 31 33 30 36 38 40 31 37 44 45 46 46 44 44 46 47 45 45
17 22 27 19 7 29 27 25 25 29 32 30 45 40 41 42 36 23 28 27 28 28 25 27 39 34 32 36 33 36 33 31 35 37 44 43 43 42 44 45 47 45 52 50
11 20 26 22 3 28 31 29 25 32 36 38 33 32 47 46 36 31 28 29 23 25 27 26 34 31 34 29 35 33 34 38 40 40 39 42 44 46 44 46 48 46 51 50
6 15 23 25 15 15 30 31 29 28 42 36 36 36 35 35 37 37 32 31 28 29 28 33 32 33 37 37 34 35 35 36 38 41 41 42 43 43 42 42 43 44 48 56
0 7 17 25 17 7 19 29 33 31 30 34 41 36 38 30 32 33 39 30 34 32 36 35 43 42 39 42 42 45 42 40 43 42 42 43 46 47 49 51 53 55 57 61
2 4 10 19 22 13 10 18 31 34 33 34 43 41 38 30 28 36 42 36 34 37 35 36 40 40 41 38 44 44 44 46 47 46 45 46 47 46 48 51 53 56 60 63
3 2 7 12 20 23 17 15 14 27 34 39 44 47 44 35 31 29 37 44 42 39 37 37 41 41 42 41 43 46 50 48 46 44 46 48 48 49 52 55 60 59 63 67
6 3 3 9 13 18 23 21 12 10 16 25 30 40 41 42 39 34 35 43 48 49 46 40 43 44 42 43 42 44 49 52 52 51 52 55 56 60 60 61 63 64 66 69
14 9 6 4 10 13 16 20 22 18 15 13 16 20 25 25 34 35 34 35 44 48 47 41 41 43 42 37 37 39 40 42 43 46 51 54 57 60 60 62 64 67 69 71
21 16 13 10 8 11 13 15 15 18 22 21 18 16 15 17 20 21 23 26 28 39 43 36 36 36 33 35 40 42 44 46 44 48 52 54 54 56 60 64 67 70 71 73
29 23 18 16 14 13 12 13 14 15 17 18 18 20 19 16 12 14 16 22 22 23 27 31 33 38 40 38 42 42 44 45 52 56 58 58 58 58 58 60 64 63 63 65
37 32 26 22 19 18 16 16 14 13 13 14 15 14 13 13 14 15 16 17 20 20 19 17 15 14 20 26 33 36 38 37 38 36 40 42 46 47 50 53 57 62 67 69
46 40 35 30 24 22 20 19 17 16 14 14 14 15 14 13 13 13 15 16 16 17 16 17 17 17 18 22 24 25 24 29 33 39 42 44 50 50 54 57 61 64 68 73
53 49 44 39 34 28 25 24 24 22 19 19 18 17 15 13 12 13 13 14 15 16 16 17 16 17 20 29 32 31 32 39 41 45 47 49 53 57 59 61 66 71 75 81
60 55 51 47 43 38 34 30 29 28 25 24 24 23 21 21 20 19 17 15 17 19 22 22 24 25 25 36 39 36 41 45 48 52 54 57 60 64 67 71 76 80 83 87
67 62 59 56 52 48 44 42 38 32 32 31 30 30 31 30 27 26 25 26 26 27 29 33 34 35 35 43 47 47 50 51 54 56 59 64 67 72 76 81 84 85 90 91
74 70 67 64 61 58 54 50 46 44 42 38 38 38 39 39 37 36 35 35 35 36 39 40 41 43 47 55 55 58 58 58 58 63 68 73 77 80 81 83 87 90 92 96
78 77 75 72 69 66 62 58 55 51 49 47 48 49 48 46 45 44 43 42 41 41 44 47 48 54 59 61 65 64 64 64 67 70 74 78 81 83 86 90 93 96 101 104
82 80 79 80 79 76 71 67 64 60 57 57 59 59 56 54 52 52 51 49 49 49 52 54 56 62 66 69 71 71 70 70 73 77 81 84 86 88 93 98 102 104 108 112
83 81 82 85 84 83 78 74 71 69 67 66 68 66 65 65 63 61 60 60 60 59 61 65 63 70 74 77 76 77 79 81 83 85 88 91 93 96 100 105 107 110 114 119
91 88 87 84 84 85 84 81 78 77 77 76 78 77 73 71 69 68 67 70 69 70 70 72 74 77 82 79 79 81 83 87 89 92 95 98 100 102 106 107 110 115 119 122
99 95 92 89 86 84 84 84 85 86 86 84 83 83 82 81 80 79 78 77 77 77 77 81 87 90 85 82 83 86 89 92 96 99 103 105 106 109 110 113 117 123 125 128
105 102 98 96 89 86 84 87 89 89 86 84 84 84 85 86 86 85 85 86 86 85 85 91 94 91 90 90 92 94 96 99 101 105 109 110 111 114 116 119 126 127 133 132
113 109 105 99 97 95 94 94 91 91 91 90 89 89 91 89 87 87 88 89 87 89 95 93 91 90 91 93 95 98 102 104 107 109 113 115 118 121 122 127 129 131 128 127
120 115 109 108 106 104 102 101 100 97 94 94 94 94 93 92 91 90 91 92 95 97 94 93 93 94 97 100 102 105 109 112 114 117 119 119 122 126 128 131 133 131 130 123
124 118 118 117 114 115 112 109 107 104 102 100 99 99 100 97 96 96 98 101 102 101 99 100 102 104 107 109 111 113 114 117 120 122 124 127 129 130 133 132 129 124 115 110

GFSNW_250_spd_012.txt.gz
Wind_Speed
23 22 23 22 15 22 22 18 17 25 29 24 21 30 29 26 24 26 31 40 45 44 56 64 59 59 59 58 60 62 63 63 60 61 60 57 55 53 45 43 46 43 43 45
19 19 21 18 7 24 25 21 23 25 32 27 22 28 30 23 21 19 25 32 34 36 37 47 55 58 62 64 66 61 60 60 61 57 57 56 53 50 47 46 45 45 45 44
16 17 19 15 9 26 25 27 26 24 35 31 28 18 21 29 23 24 27 20 26 24 28 35 34 30 38 44 46 53 61 63 62 64 65 61 58 51 45 45 43 43 47 43
13 14 15 15 11 28 31 33 31 26 36 36 32 27 28 18 25 29 31 27 22 24 25 22 23 21 25 26 24 28 36 44 48 49 50 50 48 47 44 43 40 42 44 48
13 11 12 15 9 20 36 40 39 31 26 40 36 34 35 27 23 27 29 28 26 22 29 28 27 25 32 33 36 35 32 38 36 33 35 39 38 42 40 41 42 47 48 52
12 9 7 12 8 9 37 42 39 37 33 35 41 37 34 35 30 21 23 25 28 21 22 27 29 36 28 28 30 33 36 38 35 33 34 35 36 39 42 45 45 46 49 50
11 9 2 7 7 4 26 40 41 38 40 39 39 37 33 39 36 34 27 24 28 27 22 25 25 35 33 31 28 28 32 33 34 38 41 41 42 41 42 42 43 47 50 54
11 9 6 2 5 2 16 32 36 40 43 47 45 43 40 37 39 35 31 34 32 31 30 29 32 30 28 28 28 29 28 31 30 30 32 35 37 39 42 44 47 51 55 56
14 11 9 6 5 3 11 20 31 36 39 43 47 48 40 44 42 39 39 38 35 36 34 33 35 36 35 36 34 32 33 34 30 33 36 37 38 41 46 50 51 54 56 58
20 15 12 11 9 8 7 15 21 27 37 36 44 44 48 43 43 37 32 35 40 41 38 35 37 40 42 45 44 41 35 36 39 42 43 43 46 51 53 55 57 59 62 65
28 22 17 13 12 11 10 10 15 21 26 31 33 38 45 47 47 43 37 35 33 39 44 43 39 35 37 40 44 44 42 42 44 47 49 53 58 58 60 62 64 64 65 66
35 29 24 20 17 14 13 13 12 13 18 24 26 28 30 34 36 40 40 42 40 37 34 42 46 42 38 35 39 40 41 42 43 48 50 52 54 57 60 61 61 63 65 67
42 36 31 26 23 20 17 16 15 15 17 19 20 21 22 24 29 31 33 32 34 36 30 32 36 42 37 36 38 39 43 43 49 52 53 55 57 58 61 64 65 62 60 60
48 44 39 34 28 25 24 22 20 19 18 18 19 18 18 17 17 18 18 22 26 28 27 28 31 34 39 39 41 45 45 48 49 51 49 49 49 48 47 46 48 52 56 59
54 50 46 42 37 32 30 29 27 25 23 22 20 20 20 19 19 19 19 20 21 22 25 27 26 28 29 27 27 29 28 33 35 37 38 40 43 44 47 50 52 56 58 62
59 56 53 50 46 42 38 32 32 31 29 27 26 26 24 23 23 22 22 22 23 24 25 26 27 27 28 29 31 27 33 37 39 41 43 44 47 47 50 53 57 60 66 72
65 62 59 56 54 50 47 42 37 34 34 33 30 28 28 28 27 24 24 25 26 27 27 29 32 32 33 36 37 33 41 42 43 45 46 49 52 55 57 60 65 69 71 74
72 68 65 62 60 58 56 52 47 42 38 35 36 36 35 35 33 31 30 29 28 28 30 32 33 37 41 45 41 45 47 49 51 53 55 57 58 61 64 68 71 74 78 80
77 74 72 69 67 64 62 59 56 51 47 44 43 42 41 40 41 41 41 40 38 38 38 40 42 46 50 49 54 54 56 57 57 60 62 65 68 71 73 76 79 82 83 87
80 80 79 77 75 72 69 66 63 58 55 53 53 51 49 47 48 47 47 47 46 47 48 48 50 54 56 58 60 61 62 63 65 66 70 74 77 79 81 83 85 88 90 94
82 82 82 83 82 79 76 72 67 64 62 64 64 60 59 57 56 54 53 54 53 54 56 56 59 64 64 65 65 65 65 66 70 74 78 81 83 85 88 90 93 96 98 101
93 90 89 87 86 84 80 76 74 73 71 71 74 70 68 65 64 62 61 62 61 61 64 65 67 70 71 72 73 73 75 78 82 84 86 88 91 92 93 96 98 100 102 106
101 98 94 91 90 87 83 80 80 80 81 80 79 78 77 76 75 73 73 72 71 71 70 71 73 76 78 78 78 80 84 87 89 90 93 95 96 98 100 100 101 105 108 114
109 106 102 98 90 88 85 86 88 88 87 85 85 85 84 84 84 83 84 82 81 81 83 84 85 82 82 84 86 89 91 93 95 96 96 97 99 101 102 104 108 112 117 121
114 113 107 100 94 93 93 92 90 90 90 90 90 89 89 88 88 88 88 89 89 89 90 88 86 86 86 89 91 92 94 95 97 97 99 101 103 105 108 112 116 119 123 127
118 118 111 107 105 102 101 100 99 97 94 93 93 93 92 92 91 90 90 93 96 96 93 92 92 91 93 94 95 96 98 98 99 101 104 108 110 113 116 120 123 125 129 133
116 113 116 112 114 111 109 107 105 103 100 99 98 96 96 96 95 93 95 97 98 97 96 95 94 96 99 99 99 101 102 104 106 110 112 114 116 119 123 126 128 132 135 135

GFSNW_250_spd_018.txt.gz
Wind_Speed
33 33 31 33 26 23 24 16 13 10 4 5 8 13 22 21 11 26 42 47 48 46 38 35 34 37 42 47 52 59 74 85 83 81 81 77 76 71 66 63 63 63 63 64
34 34 30 32 24 22 21 18 16 10 6 5 5 10 13 19 12 30 40 44 42 38 35 33 33 34 36 42 46 51 62 71 77 77 76 73 71 69 67 67 67 66 65 67
35 34 29 31 23 21 20 18 18 17 10 7 6 8 11 12 13 28 37 41 41 37 33 33 31 28 29 33 40 47 53 61 66 70 73 77 74 73 72 70 65 66 64 65
36 33 30 31 23 20 19 18 23 21 16 10 9 12 13 12 14 23 37 39 39 38 37 35 34 33 32 32 34 38 42 48 57 65 69 70 70 70 69 67 68 64 66 60
38 32 31 30 24 20 21 18 20 28 22 13 18 13 9 10 15 18 33 37 37 39 40 41 40 37 36 35 34 35 38 43 48 53 58 60 63 62 62 62 62 62 64 60
39 33 32 30 24 20 21 21 15 30 32 26 20 18 17 17 16 22 19 31 38 38 40 42 40 38 36 35 33 34 36 39 42 44 48 50 50 52 52 54 56 57 56 57
41 35 33 31 24 21 22 22 15 33 36 35 28 22 23 23 17 15 24 23 28 35 39 39 40 41 40 40 40 39 39 38 39 40 40 41 46 46 47 48 50 53 56 57
42 36 33 31 24 22 23 23 18 34 38 38 37 28 28 29 24 17 17 25 22 24 24 28 35 42 42 42 42 42 44 45 47 47 48 49 51 49 50 52 54 54 58 60
46 37 35 31 24 23 24 23 18 30 41 38 45 36 29 28 33 27 24 20 19 22 25 22 22 23 22 24 31 37 41 46 50 52 54 54 56 57 58 59 58 61 62 61
48 39 37 32 26 24 24 21 17 26 43 42 44 46 37 33 33 35 32 27 23 21 20 19 19 19 22 24 23 23 21 27 32 37 37 38 40 43 45 47 47 50 51 51
50 41 38 33 28 25 26 21 15 20 39 44 44 41 45 41 36 35 36 34 30 29 23 22 21 26 27 29 27 27 30 30 30 30 32 30 32 34 35 37 41 43 43 45
53 45 40 36 30 25 26 22 15 19 28 40 46 45 42 40 40 39 34 30 29 30 32 29 28 26 30 34 39 36 34 36 35 34 34 35 37 41 44 44 43 44 45 46
55 48 43 38 33 26 25 23 17 15 22 32 42 46 45 47 45 43 41 39 38 35 34 34 35 35 34 35 39 36 37 43 41 42 42 42 42 41 41 42 45 47 49 51
57 52 47 42 37 31 26 23 20 15 18 25 35 41 44 44 44 45 49 46 43 42 42 41 41 37 37 39 40 41 44 45 45 45 46 46 47 47 48 49 51 52 53 55
60 55 51 46 41 36 30 26 22 20 16 21 27 34 39 41 43 41 39 41 47 48 44 41 38 40 38 39 37 41 45 46 47 49 52 52 51 50 52 54 55 54 56 60
64 59 56 51 45 41 36 31 27 23 21 17 14 21 30 35 38 39 39 40 42 43 43 47 51 52 47 47 46 46 44 44 48 50 51 50 50 50 52 53 53 56 58 59
69 64 60 57 51 46 43 37 32 28 25 20 19 16 18 24 26 28 29 31 32 35 40 42 43 43 43 45 48 46 42 45 45 53 55 50 46 47 50 54 54 52 52 54
74 69 65 61 57 52 48 43 38 33 29 25 24 25 23 23 23 23 22 21 22 24 27 30 35 37 35 35 35 30 31 35 37 38 42 44 46 48 48 49 50 53 56 59
78 75 70 65 62 58 54 50 45 40 35 32 31 31 29 26 27 26 26 26 24 23 21 22 23 24 28 31 30 28 29 32 33 35 39 43 46 49 52 54 56 59 62 65
84 81 76 71 67 66 60 56 51 47 44 41 39 37 35 33 33 33 33 32 31 31 31 30 28 32 31 31 33 35 37 39 40 42 45 49 52 55 57 60 62 64 67 70
88 84 81 78 76 72 68 62 56 52 50 50 50 48 46 43 40 39 36 37 36 37 39 36 37 40 39 38 41 44 45 45 46 49 53 55 57 59 61 63 66 71 74 78
90 88 85 84 82 77 71 66 62 60 60 60 61 60 56 53 50 47 44 41 40 37 41 40 42 47 46 45 46 49 51 52 55 58 60 62 64 67 70 73 76 79 82 85
96 93 90 86 84 78 70 66 66 69 70 71 69 65 63 61 59 56 53 50 48 47 46 48 52 52 51 53 55 57 59 61 63 65 66 68 71 73 76 79 83 87 90 95
103 99 96 92 84 76 72 75 77 76 76 75 72 71 69 68 66 62 61 60 59 55 56 60 61 60 61 63 65 66 68 69 70 72 75 77 80 83 87 89 91 94 98 101
109 105 101 94 86 83 82 81 81 81 80 80 80 78 77 75 72 71 70 69 65 65 67 68 68 69 72 73 74 75 77 78 80 82 84 87 90 93 95 96 98 100 104 107
114 110 102 98 95 91 88 87 86 85 84 82 81 81 81 82 80 79 78 75 74 75 75 76 77 79 80 82 83 84 86 87 89 91 93 95 96 98 101 103 104 107 109 110
102 108 111 108 104 99 97 95 94 92 90 87 86 85 85 84 84 84 84 83 83 82 82 84 86 88 90 91 92 92 93 94 95 98 101 102 102 104 105 106 106 110 114 117

GFSNW_250_spd_024.txt.gz
Wind_Speed
67 66 63 57 50 43 34 24 22 23 24 22 16 17 22 28 23 11 4 14 25 33 41 47 53 56 63 71 79 81 80 78 76 74 73 70 68 66 66 63 60 59 61 60
67 65 64 56 47 42 32 23 21 20 22 17 13 12 19 20 13 8 14 25 32 36 37 41 50 55 59 66 75 79 79 76 73 71 71 68 65 65 64 62 63 64 61 63
67 66 60 51 46 37 30 21 20 18 19 15 9 9 14 9 12 15 24 31 35 37 35 36 44 48 50 58 71 79 81 79 75 71 70 69 68 69 70 70 67 68 65 67
67 65 57 49 45 38 29 21 20 16 16 14 10 8 8 7 18 21 28 32 34 35 35 31 38 46 46 47 60 72 77 76 73 72 72 72 71 68 66 63 68 65 69 65
67 63 58 50 45 37 31 23 20 17 15 17 12 9 2 6 16 22 26 29 29 28 29 33 37 37 43 46 49 61 72 76 75 73 73 72 70 70 67 65 65 65 67 69
67 64 58 53 47 41 32 26 22 19 15 21 15 10 6 7 15 20 23 24 24 25 23 23 23 28 34 39 41 47 61 73 75 73 72 70 65 66 68 69 68 70 68 78
65 63 59 54 49 42 33 29 24 20 14 24 19 15 13 11 12 21 23 23 21 23 23 22 20 22 27 31 35 38 42 54 67 72 72 71 73 73 72 71 72 72 74 75
69 64 59 55 49 42 34 31 26 23 18 28 24 23 19 15 11 23 26 26 23 21 20 20 20 19 20 23 27 32 37 41 45 51 61 68 73 75 76 76 77 77 78 79
70 67 60 55 50 43 36 33 28 25 21 27 31 29 23 22 19 15 25 29 27 25 23 23 23 23 22 21 21 24 27 31 35 40 44 50 54 57 62 64 67 71 74 73
73 70 62 57 50 45 39 34 30 27 24 20 38 35 28 26 25 22 16 22 28 28 27 25 25 26 25 24 24 23 22 23 25 28 31 34 36 39 41 45 48 48 50 50
72 71 65 59 52 46 41 37 32 29 27 21 34 41 37 33 29 25 25 20 18 22 27 28 29 27 26 26 27 28 28 27 26 26 27 29 28 31 33 35 38 40 42 44
74 71 65 60 54 48 43 38 34 31 29 25 21 44 43 40 37 31 27 27 24 21 18 21 19 22 25 28 29 30 31 32 34 35 36 37 37 39 40 41 43 44 46 49
74 71 66 60 54 50 45 39 36 33 30 25 24 32 51 47 42 40 35 32 28 30 29 26 27 19 17 17 19 23 24 27 31 32 33 34 36 37 37 35 35 35 35 35
74 72 67 62 56 51 46 41 38 34 30 25 24 25 50 53 49 45 42 37 33 31 30 30 27 23 21 22 23 21 22 25 27 28 27 27 28 29 30 31 33 34 35 38
74 73 69 64 59 54 49 43 40 34 30 26 22 21 44 52 49 49 47 44 40 39 35 33 32 28 27 25 26 26 27 29 30 32 32 33 34 35 36 37 38 40 41 44
77 75 72 65 61 56 50 45 41 36 31 27 21 20 38 51 53 46 48 48 48 45 43 41 39 34 33 35 37 35 33 33 34 35 39 41 43 45 45 46 47 50 52 53
79 78 74 69 63 58 52 48 46 39 32 26 21 17 29 46 51 52 50 48 47 49 50 49 46 43 41 38 36 36 40 42 43 45 43 44 45 46 45 48 50 52 54 55
79 79 75 71 66 60 55 52 45 40 34 29 26 22 26 37 47 50 52 51 49 46 45 44 43 39 37 42 48 47 44 45 45 44 46 51 53 50 50 52 51 52 52 53
81 81 79 74 68 64 60 55 50 44 37 34 32 27 20 22 34 41 45 45 44 45 46 47 45 44 42 44 47 47 45 44 40 39 42 47 50 50 50 48 44 42 39 38
83 82 78 74 70 67 64 60 54 47 42 38 35 29 26 22 21 27 36 39 39 43 43 41 38 39 42 44 44 43 38 26 29 31 29 30 33 34 33 33 33 33 35 38
85 84 82 81 77 76 70 64 56 52 47 43 39 35 32 30 26 23 23 25 29 33 37 36 38 43 42 36 32 25 23 23 22 23 24 25 26 27 29 32 35 39 43 46
86 87 88 87 82 77 70 64 58 53 50 47 46 43 39 37 34 30 28 25 24 24 27 24 30 39 28 22 24 25 24 25 25 28 28 30 32 34 37 41 44 47 49 52
87 92 92 90 85 78 71 66 62 60 59 59 57 52 48 42 38 35 34 31 28 29 29 30 35 32 29 29 29 29 30 32 33 34 35 37 39 42 45 48 50 53 56 60
88 92 93 92 85 76 71 72 71 68 67 66 61 55 50 46 44 41 38 36 36 35 38 40 38 37 36 36 36 36 37 38 39 41 42 44 47 50 53 56 59 62 66 70
85 91 92 90 83 80 78 77 76 74 72 68 63 60 57 53 50 48 45 44 42 46 49 47 44 43 43 43 44 45 46 47 49 51 53 54 56 59 62 64 67 70 73 77
85 87 88 89 85 84 83 81 80 79 75 71 68 66 62 60 56 55 52 52 54 55 55 52 50 50 51 52 53 54 55 57 59 59 60 61 64 67 69 72 75 78 81 85
77 82 88 90 89 88 87 84 83 82 78 75 75 72 68 65 62 62 62 62 61 60 60 59 59 59 60 61 62 63 64 65 65 66 68 71 73 75 77 79 82 85 87 89

GFSNW_250_spd_027.txt.gz
Wind_Speed
46 53 60 66 62 57 55 49 44 39 31 29 28 32 26 26 30 34 32 20 11 3 17 30 41 66 77 80 80 85 93 94 96 92 85 79 70 69 69 68 66 66 64 55
50 55 63 66 61 57 54 49 44 33 31 26 25 24 21 23 24 27 16 5 4 15 24 33 49 69 73 72 73 80 88 94 86 78 75 71 69 67 66 64 63 64 65 59
52 57 64 66 61 57 54 49 42 31 27 23 22 17 16 17 19 14 2 10 15 23 30 37 54 57 61 65 70 77 79 78 74 71 72 70 69 68 67 68 66 66 63 59
52 60 66 65 61 57 52 45 38 32 23 21 17 14 10 12 9 4 14 18 20 26 35 43 47 50 53 58 64 71 74 73 71 68 66 68 69 68 67 64 68 63 66 63
52 60 67 65 61 56 51 42 35 29 21 19 13 13 11 4 6 14 20 23 23 26 34 46 49 47 51 55 60 68 72 74 74 71 69 69 69 69 65 63 62 62 63 63
54 63 69 64 61 57 52 41 35 28 21 18 14 15 13 9 16 20 22 23 22 21 23 28 37 43 45 50 58 68 72 73 73 72 71 69 65 64 63 64 63 63 62 68
55 64 69 64 58 57 51 43 37 27 22 20 18 18 14 16 20 22 22 23 22 19 22 24 26 32 36 40 46 56 65 69 71 70 68 63 65 65 65 64 64 63 64 68
56 61 64 61 61 57 51 45 40 31 25 21 21 22 18 20 22 22 22 22 23 22 22 22 22 26 32 35 36 43 54 63 66 66 67 68 69 67 66 65 67 67 68 68
56 63 66 66 63 56 52 45 37 33 26 25 24 27 23 22 25 25 23 24 22 20 19 20 21 21 21 25 32 35 40 52 62 66 66 69 68 67 67 66 69 69 69 71
60 63 66 69 65 60 53 47 40 36 29 28 25 30 28 24 27 25 28 26 24 21 20 21 21 20 22 22 25 29 35 39 44 53 60 66 68 69 68 69 71 70 71 72
63 65 66 67 67 61 55 48 42 37 32 31 27 34 32 30 27 26 29 30 28 25 24 24 24 24 24 23 24 26 27 29 34 38 43 49 57 63 65 66 67 67 69 69
65 67 68 69 65 61 56 48 44 39 34 34 27 37 36 34 32 28 26 29 30 29 27 24 23 24 24 24 24 24 25 28 29 27 31 34 36 38 40 42 45 47 46 45
66 69 71 71 68 62 57 51 47 42 36 34 31 34 42 39 36 35 31 27 28 27 25 28 28 26 26 26 26 27 28 29 30 29 30 31 32 35 37 39 40 42 43 45
71 72 73 72 69 65 59 53 49 44 38 35 35 30 41 46 42 38 36 35 28 27 24 23 24 23 22 23 25 27 28 29 31 33 34 35 38 40 40 40 41 44 45 46
72 73 74 72 69 66 61 55 50 46 40 37 36 35 29 48 48 45 40 38 37 35 32 31 29 27 24 21 20 19 19 20 22 25 27 31 34 35 36 38 38 37 36 36
74 77 76 74 70 69 63 57 51 47 43 38 37 35 36 31 51 51 49 44 41 40 36 36 34 34 32 28 24 25 27 27 28 27 27 29 30 31 33 35 37 38 41 43
75 78 77 76 72 71 66 58 55 51 47 42 38 35 33 32 38 59 55 51 49 45 41 40 39 36 35 33 31 31 31 33 32 33 32 34 35 36 39 41 44 47 49 50
74 79 79 77 73 71 68 64 60 54 49 43 38 37 34 31 35 52 62 59 55 52 50 47 44 42 38 38 40 39 38 36 38 38 39 41 42 45 48 49 51 53 54 53
76 78 79 78 75 74 71 67 60 54 49 43 41 40 35 29 31 42 51 57 58 56 53 52 48 45 44 49 51 48 45 44 44 42 41 43 46 50 51 53 54 51 49 48
79 80 78 76 74 75 73 68 62 55 49 47 44 40 35 30 29 36 44 49 52 53 55 55 51 49 50 52 56 54 50 43 43 44 48 51 49 48 49 48 44 39 38 38
78 79 79 77 79 78 76 69 63 56 52 51 48 43 40 34 30 32 37 46 49 53 55 53 49 51 54 51 50 51 47 45 45 45 43 42 41 33 30 31 31 30 31 33
75 79 83 85 83 82 78 71 63 57 56 53 51 47 43 40 35 31 30 36 43 47 51 46 50 59 55 52 51 51 46 45 43 38 33 30 25 25 26 29 31 34 36 38
77 82 85 89 85 81 76 71 67 63 63 64 62 56 51 46 41 36 32 28 28 35 42 47 57 58 51 47 46 45 44 37 31 29 30 30 29 30 31 34 37 39 41 46
79 81 82 84 84 81 78 76 77 74 72 71 66 59 54 49 45 39 36 33 32 30 34 43 43 38 36 34 31 31 34 34 33 33 33 33 34 36 39 42 44 48 52 55
73 77 80 82 81 85 85 83 81 79 76 73 68 61 57 54 46 44 42 41 39 40 42 42 40 38 37 37 38 37 37 37 38 39 39 41 42 44 46 49 53 57 60 63
69 71 74 79 80 86 87 85 85 84 81 76 71 65 60 57 53 51 49 47 48 50 49 46 44 43 42 42 42 43 43 44 45 46 47 47 49 51 55 58 62 65 67 70
56 66 73 76 81 87 88 88 87 86 82 77 73 70 66 64 60 59 58 58 57 53 51 50 50 49 49 50 51 52 52 53 53 54 55 56 58 61 64 66 69 71 74 76

GFSNW_250_spd_030.txt.gz
Wind_Speed
37 39 41 45 47 48 50 50 51 52 46 38 41 38 35 37 38 36 38 41 43 39 32 23 14 20 35 49 60 70 77 83 85 87 87 89 88 84 79 74 71 65 67 63
35 36 40 45 46 49 50 53 52 46 40 38 35 30 32 33 30 29 32 35 31 26 19 10 13 25 47 65 68 72 75 82 85 83 80 78 79 75 72 70 67 65 64 62
33 37 41 46 48 50 51 53 48 43 39 35 31 30 29 26 21 24 25 21 17 12 5 9 23 33 49 66 73 74 75 77 75 75 72 73 75 73 70 69 68 67 64 62
32 40 44 45 49 51 54 51 47 44 41 31 27 27 23 18 17 17 12 6 9 2 8 18 27 37 54 62 70 75 78 75 75 74 75 74 71 68 68 68 68 63 59 59
36 42 47 50 54 54 55 50 47 46 40 33 25 23 16 13 12 6 3 5 9 6 7 17 36 42 56 64 70 69 68 75 79 81 74 73 69 67 65 64 60 60 56 56
39 44 48 51 53 59 56 51 49 43 38 30 25 19 14 10 6 9 10 8 8 10 15 17 24 43 48 47 49 53 61 70 72 72 70 65 58 60 61 61 58 59 57 59
39 45 51 56 60 60 57 53 48 42 37 30 23 19 16 11 11 16 15 14 14 14 15 22 25 33 36 38 42 47 51 53 57 60 59 56 59 58 59 58 55 55 56 55
42 44 49 52 59 61 56 53 48 41 35 31 23 21 19 15 19 21 20 17 15 17 20 22 25 28 31 33 36 40 47 53 59 62 60 58 57 57 56 56 56 56 56 56
42 47 56 63 68 65 58 55 48 41 35 30 24 23 22 21 25 23 20 19 16 17 20 22 26 28 30 30 33 37 41 49 56 60 61 62 59 57 56 57 59 58 58 58
45 53 59 64 66 64 61 57 49 44 37 31 28 27 26 24 29 29 23 21 20 18 18 20 21 24 26 27 31 34 39 46 51 56 60 62 63 60 60 61 62 60 60 60
47 52 60 65 65 62 59 57 52 47 38 33 30 30 28 27 28 33 31 24 22 20 18 18 18 18 21 23 26 28 31 37 45 53 58 60 61 62 63 63 62 62 63 64
48 53 60 66 66 63 60 56 52 48 42 35 31 33 33 30 28 35 35 32 28 23 22 22 21 22 23 23 23 26 29 31 34 40 47 53 58 60 63 64 64 64 66 66
49 54 61 66 67 63 63 59 53 47 42 37 35 36 35 35 31 31 38 37 34 31 28 25 23 23 24 25 24 25 26 28 31 34 36 39 42 46 51 54 57 59 62 64
53 57 62 67 67 67 65 61 56 48 44 40 38 36 38 37 36 32 31 39 36 34 31 28 26 24 24 24 24 26 26 26 27 29 30 31 33 36 40 41 43 45 48 50
58 61 65 70 69 71 67 63 56 49 46 41 38 35 41 40 38 37 35 31 33 35 35 32 30 27 25 24 24 25 25 25 25 27 29 31 31 32 35 37 40 41 42 44
59 64 68 71 72 72 68 62 56 52 49 44 41 39 36 44 42 41 38 36 33 31 32 33 33 32 29 29 29 28 27 28 29 28 30 31 31 31 33 36 38 39 39 38
61 67 70 73 75 72 68 63 59 56 53 49 43 40 39 37 44 46 43 40 37 36 34 33 33 32 31 31 32 32 31 30 29 28 27 28 30 32 33 33 34 35 37 40
62 69 73 74 74 72 69 67 63 60 57 53 46 41 40 39 38 37 44 47 45 41 40 39 36 34 34 36 34 33 30 28 27 28 29 29 30 32 33 35 37 39 42 45
64 71 73 75 75 74 71 70 66 63 59 53 49 44 40 39 41 41 38 36 46 49 46 45 41 41 42 43 41 40 36 34 33 32 32 32 34 37 40 42 44 46 49 50
65 72 74 75 76 78 75 74 69 66 59 53 51 49 45 41 40 40 39 38 38 51 56 51 46 44 46 47 46 42 40 40 39 40 40 41 41 44 45 46 47 50 53 54
62 69 76 80 82 81 79 75 70 64 59 56 55 55 50 44 41 39 37 37 36 45 60 57 52 52 55 54 52 48 49 49 46 47 47 50 50 48 46 49 50 47 50 45
59 67 78 84 86 84 80 74 69 66 61 57 58 57 51 47 44 40 38 35 32 40 53 61 60 62 62 60 57 56 55 54 55 55 54 52 49 48 48 48 47 48 43 38
64 71 77 83 84 80 74 68 64 61 60 64 65 62 56 52 48 44 40 33 29 32 43 52 62 63 64 62 60 60 58 56 54 53 50 49 49 48 47 46 45 39 38 37
63 68 73 78 80 78 75 73 72 72 73 72 71 68 61 57 52 45 40 35 31 27 33 48 57 56 56 56 55 55 54 52 51 50 50 49 45 42 42 41 39 40 41 43
62 66 69 72 76 80 79 80 78 78 78 77 75 71 65 60 53 46 42 40 35 38 40 40 42 46 48 50 49 48 48 48 48 45 41 40 39 40 41 42 43 44 46 48
60 61 65 72 76 82 84 84 84 83 82 81 78 72 64 61 55 51 48 45 46 47 42 38 35 34 36 37 38 38 39 39 38 38 40 41 42 44 45 46 48 50 53 55
51 56 64 68 74 80 85 88 86 85 84 82 79 76 71 66 60 57 55 54 53 49 48 45 43 41 39 39 39 40 41 42 44 45 46 47 47 48 49 51 54 57 60 63

GFSNW_250_spd_033.txt.gz
Wind_Speed
32 33 34 37 41 44 43 45 42 45 45 38 41 43 42 36 35 36 40 41 48 51 45 47 47 35 21 13 22 36 40 43 49 56 67 68 72 63 68 68 74 72 69 69
25 29 31 36 39 38 39 39 43 42 39 43 44 41 36 33 31 33 34 40 42 38 40 39 30 20 12 24 39 48 56 63 61 59 68 48 59 63 68 73 74 73 69 67
22 28 31 33 34 34 36 40 42 39 45 48 44 37 32 29 28 29 32 33 29 32 32 26 16 6 19 39 50 54 64 66 59 56 57 56 57 68 74 76 75 72 69 66
22 27 29 33 33 37 40 41 40 48 51 47 39 34 28 26 24 27 25 19 20 24 19 15 2 10 31 52 60 61 67 65 47 56 61 64 75 71 76 76 74 71 66 62
23 26 32 33 36 40 43 45 48 53 48 43 37 30 24 21 20 20 14 9 13 15 10 5 7 10 47 55 56 58 64 71 68 65 68 70 74 72 74 71 67 64 63 60
22 29 32 34 41 43 49 52 55 52 46 40 34 27 21 16 17 10 6 3 9 10 9 9 15 2 16 40 57 55 58 59 62 65 66 61 64 69 68 65 62 60 59 56
26 29 31 40 46 52 56 58 56 52 44 39 33 24 18 18 12 8 9 8 6 12 17 12 14 5 7 30 37 43 52 50 55 59 59 54 57 63 61 56 55 56 55 52
27 28 36 43 46 51 56 54 52 51 46 39 31 24 21 19 14 15 14 12 7 8 20 14 13 9 8 12 18 29 42 43 49 51 47 48 56 55 53 53 52 52 51 48
27 32 42 50 55 59 61 57 52 49 43 38 31 26 26 20 20 22 18 14 14 7 13 21 23 25 22 21 25 27 28 34 35 39 42 50 55 54 54 53 51 51 48 46
30 35 45 52 59 64 61 58 55 48 44 38 33 28 26 24 24 27 22 18 16 17 15 16 19 21 25 27 29 30 30 32 35 42 48 53 54 51 51 50 49 50 48 47
33 38 48 56 63 66 64 59 53 49 44 39 34 32 29 28 27 28 28 22 20 20 22 22 22 23 23 23 23 25 26 29 36 43 51 52 51 51 50 48 49 50 50 50
37 43 50 60 67 66 64 59 54 48 44 40 35 35 32 29 32 30 32 29 22 20 20 23 25 25 25 26 27 27 27 26 29 40 46 50 52 52 50 50 49 50 52 53
40 45 54 64 70 68 64 61 56 51 45 41 36 35 34 31 33 33 30 33 31 24 20 19 21 24 26 26 26 27 27 29 29 32 37 44 49 53 54 55 54 55 56 57
41 46 54 64 70 69 67 65 58 53 47 41 37 35 36 32 32 34 33 31 31 30 27 23 20 19 20 20 20 23 24 25 27 29 33 36 40 46 50 53 54 56 58 59
43 47 55 64 70 67 66 63 58 53 49 42 38 35 39 37 33 33 35 36 31 29 26 25 23 21 19 17 17 18 20 20 21 22 26 31 34 38 41 45 47 50 51 52
44 48 56 65 70 68 65 61 57 53 50 44 40 37 38 39 38 35 35 32 32 34 32 29 27 26 26 25 24 24 24 23 22 22 24 24 25 26 27 28 30 32 35 37
47 50 58 67 70 68 65 64 62 58 53 48 44 40 38 39 40 38 33 32 31 32 34 33 33 32 31 31 31 27 26 26 25 26 26 27 29 29 31 33 35 36 37 38
49 54 62 68 71 69 69 69 64 61 56 49 47 42 41 38 41 39 37 34 31 31 28 29 31 33 33 33 33 32 30 30 30 31 31 31 32 32 32 31 31 32 33 35
53 58 63 68 71 71 69 70 67 63 57 50 49 45 40 40 38 34 37 38 36 33 30 28 31 33 37 37 36 35 35 34 34 33 31 31 30 28 29 30 31 33 35 37
54 57 61 67 72 74 73 73 68 64 58 51 48 45 43 41 40 37 33 36 43 42 39 35 36 36 36 39 40 41 39 36 35 33 34 33 32 34 34 35 36 38 40 41
52 51 60 71 76 77 75 74 68 61 56 52 49 51 49 45 43 40 38 37 36 37 40 44 47 48 46 46 43 40 36 37 39 39 41 41 42 42 40 40 43 45 48 51
45 53 64 71 75 77 76 74 68 63 60 58 57 56 56 53 47 43 42 40 39 40 42 39 41 48 54 52 50 47 44 44 43 44 44 45 46 47 48 48 50 53 52 50
47 56 62 68 73 74 72 72 70 66 65 66 65 62 61 56 52 49 45 40 39 37 39 44 49 46 50 57 58 56 54 53 52 51 50 50 52 53 54 55 55 52 51 53
46 51 58 63 68 71 72 77 76 74 75 74 71 68 65 60 57 53 48 44 40 37 41 43 40 37 41 49 58 61 58 57 57 56 57 57 58 58 57 57 54 54 54 52
45 48 55 60 69 75 78 80 81 81 81 78 76 72 67 63 57 55 51 49 45 47 47 42 36 32 31 38 47 54 59 63 65 65 65 62 59 57 56 55 53 52 49 47
42 48 57 63 71 78 81 81 83 84 84 83 79 76 72 67 62 59 55 53 53 54 47 41 37 35 32 30 31 37 45 51 53 55 56 56 55 54 51 48 46 44 44 46
37 50 58 64 68 77 80 83 85 86 86 85 80 76 74 70 66 62 58 58 58 54 50 47 44 43 40 37 35 34 35 36 38 41 43 44 43 42 41 41 42 46 48 50

GFSNW_250_spd_039.txt.gz
Wind_Speed
52 41 31 23 19 23 29 32 37 46 56 61 52 54 63 68 68 63 58 50 47 46 43 44 39 39 35 39 47 52 52 52 34 39 23 12 11 12 15 16 15 17 19 30
49 37 26 18 12 17 25 29 37 45 51 53 50 61 64 66 65 61 55 49 46 42 42 36 33 36 34 44 48 49 46 36 31 19 20 15 17 22 22 30 27 28 35 33
45 30 18 11 10 18 23 28 35 38 38 39 37 37 44 56 59 57 54 48 40 41 35 26 34 33 39 43 42 37 27 34 26 25 27 27 15 16 23 37 28 32 36 37
41 24 12 6 12 17 22 27 30 27 29 34 38 38 43 49 51 47 42 40 39 30 25 30 31 34 41 37 25 32 35 38 34 32 28 23 16 12 20 23 28 34 36 44
34 17 8 5 11 17 21 25 26 30 33 30 33 35 37 37 37 41 41 36 26 22 27 31 31 37 33 27 27 45 40 41 41 40 26 31 16 1 6 18 28 35 40 44
31 15 5 4 11 19 25 29 35 33 29 29 32 32 33 36 38 36 32 23 21 22 27 27 32 28 24 16 41 50 42 51 44 37 27 26 16 4 1 6 28 30 39 45
28 12 5 4 9 17 24 27 27 28 31 35 35 37 39 38 36 30 23 19 21 20 18 21 20 19 21 37 49 46 53 47 44 27 26 15 33 14 11 17 22 26 42 49
25 10 6 7 10 12 19 25 29 35 36 37 42 44 43 36 30 25 20 21 14 9 13 20 22 27 41 50 52 52 50 42 44 41 32 26 27 30 21 19 22 34 43 49
24 11 8 7 11 15 20 30 39 40 44 45 46 45 39 33 27 22 20 14 9 11 26 28 29 37 37 48 42 39 32 45 43 45 39 31 19 20 25 21 26 38 46 51
22 13 8 9 14 20 25 34 39 49 52 51 46 42 36 30 25 24 21 14 13 24 32 31 38 35 33 40 45 30 28 44 37 40 32 15 12 6 13 21 28 39 47 50
20 15 11 14 19 27 36 38 46 55 54 49 45 40 35 30 26 26 21 18 19 27 35 35 31 29 27 19 15 21 18 20 6 14 6 9 8 12 11 19 28 41 49 51
20 16 13 19 24 32 39 43 50 57 54 47 43 38 33 29 30 26 22 21 21 23 30 29 24 21 20 18 13 15 16 18 14 8 7 11 9 12 15 22 31 40 47 48
21 16 15 21 30 37 44 51 58 56 54 48 40 36 33 33 31 25 21 21 21 22 20 22 21 19 17 14 15 12 12 11 9 13 14 15 14 14 19 25 37 42 46 48
19 17 18 26 37 45 50 59 57 53 51 46 41 37 34 34 32 27 22 19 20 22 21 20 19 17 15 14 12 13 14 14 12 13 14 17 18 18 21 29 37 43 46 46
16 18 22 31 41 49 55 61 57 52 48 44 40 36 34 35 33 29 26 25 23 20 22 24 22 22 19 16 16 16 14 15 17 17 18 19 20 20 22 27 34 40 45 47
14 20 25 36 44 52 59 62 58 52 48 43 38 37 36 36 34 32 28 24 25 25 24 22 19 17 16 16 14 14 13 11 11 13 14 16 20 23 26 30 34 38 42 44
14 22 28 38 46 58 64 65 59 53 48 44 41 38 37 36 35 33 31 27 21 21 21 21 23 23 22 19 18 16 16 15 14 13 12 13 15 19 23 29 35 39 42 44
16 24 32 41 50 64 66 63 60 56 50 46 41 39 39 36 36 36 33 30 28 26 26 25 23 21 20 18 18 18 16 14 15 16 16 16 17 18 21 24 29 33 37 39
18 27 35 42 55 68 67 65 63 57 51 47 42 39 38 38 36 37 35 33 31 30 29 27 25 25 23 20 18 17 17 16 16 17 17 18 18 19 18 18 19 21 24 27
19 28 34 47 59 66 66 65 61 55 49 43 41 38 38 36 35 35 35 33 31 31 31 30 28 26 23 21 21 20 19 19 17 19 22 23 23 24 24 22 22 23 24 26
21 28 38 50 57 66 68 65 60 54 50 46 42 40 38 38 38 37 35 35 33 29 28 28 28 31 26 24 23 23 24 23 20 19 19 21 23 23 25 25 26 27 25 25
23 31 43 48 56 61 67 65 60 57 54 51 48 45 44 41 40 39 39 40 37 36 33 31 30 25 25 25 24 23 23 23 24 25 24 24 25 27 28 30 31 31 33 34
23 31 37 44 50 60 67 65 63 63 62 61 58 54 51 48 45 43 40 39 41 40 39 38 34 32 32 31 30 29 29 28 29 29 29 30 32 35 37 37 38 40 43 44
21 30 36 40 49 66 71 75 74 71 71 69 65 62 59 56 54 48 42 40 39 40 40 42 42 39 38 36 36 36 35 35 37 40 41 42 43 42 45 48 49 49 48 50
17 22 28 39 51 71 76 79 79 76 72 69 66 64 62 61 57 50 47 45 44 43 41 40 39 38 37 37 39 39 38 36 35 36 38 39 40 43 50 53 54 55 57 57
9 13 27 39 48 65 74 78 82 80 79 76 73 69 66 65 62 57 55 52 52 51 45 40 38 37 37 37 37 37 37 35 35 35 35 36 35 35 33 35 39 43 47 51
10 21 27 40 47 58 66 75 79 84 82 79 78 77 75 71 68 65 62 60 56 51 48 46 45 43 41 40 39 38 38 39 40 39 39 37 36 35 34 32 31 31 33 35

GFSNW_250_spd_042.txt.gz
Wind_Speed
74 65 52 40 24 15 15 23 29 34 42 50 58 66 61 65 65 62 61 59 54 48 44 41 38 44 43 45 50 45 35 36 37 48 54 52 42 44 38 40 39 36 31 31
71 62 49 36 21 13 14 20 23 31 37 39 45 55 67 69 66 63 58 54 51 46 44 43 40 40 42 45 47 34 37 39 42 43 39 34 36 33 29 25 29 24 18 13
68 59 45 31 19 11 11 18 21 27 31 35 41 45 58 65 68 61 58 54 49 47 45 39 37 42 44 41 35 34 41 39 35 20 20 25 17 12 5 15 21 11 6 8
65 55 41 25 15 9 12 16 18 24 29 35 43 47 55 60 62 59 55 53 52 47 43 38 42 45 40 33 31 39 37 27 20 20 17 15 3 6 14 16 14 13 11 10
61 52 37 22 10 6 10 13 17 22 24 29 33 33 38 39 52 53 57 57 53 47 43 41 45 41 31 30 36 33 25 27 32 35 9 9 12 14 14 12 15 9 6 4
58 49 34 19 9 4 10 13 16 17 19 22 24 28 31 37 44 51 56 55 50 48 45 44 37 29 28 34 34 29 24 38 33 18 18 9 4 10 17 16 9 5 4 2
54 45 31 18 8 4 9 16 22 23 24 25 27 27 30 34 37 40 44 45 45 45 38 32 28 28 31 34 31 27 45 37 27 22 13 15 4 6 12 4 4 5 6 7
50 40 27 16 7 5 10 15 19 23 25 27 30 31 32 33 35 38 39 37 34 32 27 24 30 34 35 29 34 38 50 42 32 34 24 19 3 11 11 8 10 8 7 11
47 37 24 13 7 8 14 17 19 25 30 32 32 32 33 35 35 36 35 31 24 20 24 33 35 34 30 39 45 58 48 42 33 20 25 27 24 13 7 2 4 4 5 17
43 32 21 10 8 12 14 18 25 28 30 32 36 37 41 42 39 31 26 22 19 24 26 27 24 24 41 47 50 54 46 42 31 28 21 22 11 12 5 7 6 5 14 20
41 30 17 8 7 12 17 23 29 33 35 40 45 45 41 36 31 26 23 20 19 18 17 22 31 35 38 38 41 49 49 38 26 26 25 7 8 6 3 3 4 8 16 25
37 25 13 7 9 17 23 29 36 40 42 48 45 42 36 32 30 26 20 18 19 23 28 39 39 36 36 28 25 24 23 39 19 22 14 10 11 8 7 6 5 11 15 25
33 20 9 8 15 20 29 35 42 47 51 48 44 38 35 31 29 24 22 21 23 33 39 40 39 33 26 23 15 14 15 16 21 15 14 9 9 10 11 12 9 10 22 25
27 14 8 12 18 23 33 42 47 52 50 46 42 37 32 30 29 24 25 24 29 33 40 38 37 34 27 21 15 13 11 9 8 13 13 11 10 10 13 14 13 13 19 28
21 8 10 15 22 29 39 47 50 51 48 44 40 37 31 31 30 27 27 27 27 30 32 32 29 25 21 16 10 10 8 8 9 12 12 10 8 9 11 14 14 16 19 23
15 8 14 20 26 33 43 54 50 50 46 42 39 34 31 30 29 28 27 27 25 22 21 24 23 20 17 15 12 10 9 8 8 10 9 9 10 11 13 14 16 18 21 25
10 9 18 23 31 40 48 54 52 50 45 40 36 32 30 29 29 26 24 24 24 23 20 19 19 19 18 17 17 14 13 12 12 10 9 9 10 10 11 14 16 19 23 26
8 12 21 25 35 42 48 52 52 50 45 39 34 30 31 31 29 27 23 20 18 19 21 22 22 22 21 20 17 15 13 11 10 8 8 8 8 9 11 13 16 19 21 23
6 14 22 27 35 41 50 55 53 51 46 40 36 32 32 32 31 29 27 25 22 22 22 23 23 20 17 15 11 12 12 11 9 8 8 9 9 9 9 10 12 14 16 18
5 15 25 30 32 40 51 57 56 53 48 42 38 33 33 33 33 31 31 29 27 26 25 23 22 19 15 12 9 10 12 13 12 12 12 13 14 15 15 15 16 16 17 19
5 14 24 29 29 36 49 59 56 54 50 46 41 39 36 36 34 34 34 32 31 32 30 28 26 21 19 19 18 18 19 18 18 17 17 19 17 16 15 16 18 19 20 22
8 16 22 26 27 34 49 60 58 57 54 51 46 42 40 39 39 37 35 34 34 33 32 32 29 26 27 28 26 25 25 25 24 23 23 23 22 21 21 22 22 21 23 25
8 14 21 25 26 37 52 64 66 63 62 57 53 49 44 43 42 40 39 38 37 34 33 31 29 30 30 29 29 28 27 25 23 21 20 19 19 20 21 24 26 29 32 34
10 12 20 23 29 41 59 68 68 67 62 58 56 53 52 48 46 44 43 40 39 39 38 35 33 32 31 30 29 28 27 25 25 24 25 26 26 27 32 35 36 37 39 43
13 12 17 24 33 44 54 64 69 69 66 63 60 57 56 55 52 49 45 44 44 43 40 40 38 37 36 36 35 33 33 32 32 32 33 34 35 39 36 36 37 37 36 38
14 16 22 27 30 39 49 56 68 72 70 70 67 64 62 60 57 54 50 49 50 46 43 41 39 37 36 37 38 40 40 41 42 42 43 42 41 39 37 35 34 35 36 36
16 18 28 34 36 38 48 52 61 72 76 74 73 71 69 65 62 60 56 57 55 50 46 42 40 38 38 40 40 40 41 41 41 41 41 42 40 38 37 37 37 37 38 39

GFSNW_250_spd_045.txt.gz
Wind_Speed
90 80 69 58 45 34 21 11 12 20 26 27 34 39 54 63 63 58 57 59 55 49 42 38 37 38 34 34 34 38 38 40 48 46 40 37 45 53 53 45 47 52 52 48
87 77 65 53 41 30 19 8 9 17 21 25 37 45 57 62 63 60 55 55 54 49 43 40 40 38 34 33 38 37 41 43 39 40 35 40 43 40 35 37 36 42 36 29
84 73 62 49 37 27 19 3 6 13 20 25 35 46 57 64 62 58 53 53 53 50 47 43 41 37 34 36 39 38 41 36 33 33 38 31 23 25 28 32 29 30 22 11
81 69 58 45 33 25 16 2 7 12 19 27 34 43 53 62 61 56 52 50 52 50 48 47 44 39 38 40 38 39 38 30 29 34 21 9 1 8 18 20 20 26 27 22
76 66 55 43 29 21 12 4 9 15 20 26 29 32 42 51 51 51 51 50 46 48 49 45 43 41 41 39 37 38 30 26 28 20 18 10 7 6 12 16 21 25 27 22
73 62 51 39 27 18 12 4 5 13 20 25 29 34 36 37 42 50 50 48 50 49 45 44 42 43 39 38 38 35 26 21 23 28 17 16 2 7 16 23 15 20 22 14
70 58 46 35 23 15 9 4 10 14 17 20 22 28 32 36 42 51 51 52 51 48 47 45 47 42 38 40 37 29 23 19 36 28 16 2 6 8 16 18 22 15 14 13
67 55 44 31 20 13 9 5 13 19 24 26 28 29 31 35 40 48 52 49 49 47 47 49 46 42 42 38 34 27 21 35 36 30 16 16 10 5 5 16 18 13 7 8
63 50 40 28 17 12 10 6 11 18 22 26 30 31 32 33 36 42 48 53 51 49 48 45 43 41 37 36 31 20 29 40 37 31 19 14 16 6 6 13 16 19 9 9
58 46 35 22 14 9 10 9 13 18 20 22 26 27 29 30 33 36 39 40 44 42 42 41 39 39 37 34 25 21 44 38 34 28 12 19 17 9 5 9 6 6 5 5
52 42 30 19 12 8 8 14 15 17 19 21 23 26 27 29 29 30 29 29 30 33 36 38 36 32 33 30 19 42 43 43 35 31 17 20 13 12 6 7 5 5 5 7
48 37 25 16 9 8 10 14 15 19 23 27 31 34 34 34 33 32 31 28 27 25 23 23 25 26 30 28 34 49 45 44 36 8 14 8 7 7 9 7 7 8 6 8
42 31 21 13 9 10 15 18 22 26 31 38 39 38 37 34 29 25 21 18 14 13 19 21 28 33 35 38 44 51 43 37 30 20 9 9 6 4 8 7 7 10 8 9
37 26 18 13 11 14 17 22 27 32 39 40 41 37 33 28 26 20 14 12 23 23 31 39 46 48 41 36 36 45 40 33 28 21 24 14 12 14 14 13 11 11 12 10
32 24 14 11 13 15 20 24 32 38 41 41 39 33 31 30 25 19 14 18 28 36 43 45 47 41 38 29 24 26 21 24 24 26 22 20 18 15 15 15 15 12 12 12
27 19 11 11 14 16 23 30 37 40 41 39 35 31 34 29 24 22 26 38 42 41 42 43 42 38 37 32 21 21 17 13 13 11 13 11 10 12 15 15 15 15 14 14
24 16 9 13 17 23 31 35 42 42 40 37 34 30 33 29 24 24 30 33 37 36 38 36 34 31 31 23 17 13 12 11 12 11 10 10 9 8 10 13 15 17 17 16
21 13 10 16 20 24 28 36 43 42 40 36 32 28 32 30 25 24 25 28 33 32 29 29 27 24 24 22 18 17 16 17 16 13 13 11 10 9 11 12 15 17 19 20
18 10 11 17 18 20 28 37 43 43 40 35 32 27 31 31 27 26 26 26 26 29 30 28 25 23 23 23 21 20 16 11 8 6 7 6 6 5 6 8 11 14 17 20
16 7 12 16 15 23 29 38 44 44 41 37 34 29 30 31 29 27 26 27 26 25 24 23 23 23 26 22 18 16 14 14 14 11 10 7 5 5 5 7 9 9 11 12
14 7 11 13 15 24 33 41 45 45 44 40 37 34 32 32 32 30 28 26 28 27 27 26 24 24 22 20 17 16 17 19 16 14 12 12 11 10 11 12 13 13 13 15
12 4 9 13 16 21 36 44 47 48 48 44 41 38 35 34 33 32 31 30 29 28 29 27 25 24 24 24 22 21 20 19 16 17 17 17 17 18 19 19 19 18 18 19
12 4 9 13 17 20 37 53 54 52 49 47 44 41 38 36 33 33 33 34 32 31 29 29 29 28 26 24 23 22 23 22 21 21 22 22 22 20 18 18 19 20 20 22
12 5 10 15 22 27 39 49 52 52 53 51 49 46 43 41 38 35 34 36 36 36 34 33 32 31 30 29 28 28 27 27 26 24 22 21 21 21 21 22 23 24 27 30
16 7 11 22 29 34 38 40 49 54 56 56 54 52 51 46 46 45 43 41 41 39 39 37 36 35 34 32 32 31 30 28 27 26 25 26 26 28 29 30 31 32 31 31
19 13 10 21 31 36 39 38 43 53 58 59 57 57 55 53 50 51 51 51 50 47 44 42 41 39 38 36 36 35 35 34 34 34 34 34 34 35 35 36 37 37 35 35
19 18 13 14 25 38 38 40 42 47 56 60 61 60 59 57 54 54 54 56 53 49 49 48 48 46 45 44 43 43 42 41 41 41 41 42 42 43 42 40 38 37 37 37

GFSNW_250_spd_051.txt.gz
Wind_Speed
98 95 92 85 78 66 52 39 28 17 0 14 21 28 36 49 50 47 44 43 46 50 48 46 42 39 39 36 34 34 32 34 38 36 38 37 36 38 38 38 41 44 48 49
95 92 89 82 75 63 50 36 24 16 2 14 20 32 41 49 51 50 44 41 44 46 48 44 39 37 32 28 27 26 28 29 31 28 22 23 28 28 31 36 44 52 50 54
92 88 85 80 73 60 46 34 22 15 3 12 21 32 40 49 52 49 44 40 41 43 46 42 36 33 27 23 23 24 24 26 21 14 17 20 24 28 35 40 44 41 39 37
90 86 82 77 69 57 43 30 20 12 2 11 20 30 41 48 50 45 43 40 39 40 42 41 36 29 26 23 23 22 21 19 15 14 18 23 25 30 34 36 27 25 21 21
88 84 78 74 66 53 40 28 18 10 2 12 22 28 35 44 46 45 43 40 37 39 41 41 39 33 28 25 24 22 20 17 17 17 21 21 25 29 28 22 22 14 7 10
85 81 74 70 62 49 38 25 16 7 3 12 23 30 37 42 44 44 43 40 37 39 44 43 39 36 31 28 27 24 22 19 20 20 20 23 23 20 14 10 6 4 5 5
81 78 72 67 60 45 35 23 13 4 4 13 19 28 34 42 45 46 47 44 39 38 43 44 41 38 35 33 29 26 22 21 20 20 23 22 16 7 6 5 9 3 7 4
76 74 69 63 56 43 34 20 9 4 6 13 20 26 33 39 45 48 46 44 41 38 38 43 44 41 38 34 32 29 24 22 23 20 20 16 9 6 3 3 8 9 10 5
72 71 65 59 51 39 30 19 9 4 7 14 21 23 28 33 43 45 46 47 45 42 40 40 43 43 40 37 35 30 27 26 24 21 20 15 10 10 3 3 10 8 8 10
68 67 61 58 45 35 27 17 10 7 9 14 20 26 30 35 40 44 46 49 47 45 43 41 40 41 41 39 36 32 31 29 24 23 19 16 16 12 7 10 11 14 9 10
64 63 57 55 43 30 23 17 9 8 10 12 22 25 28 34 39 44 47 49 48 48 48 45 42 39 39 39 36 34 31 27 24 23 22 22 18 14 13 10 9 13 9 9
61 58 54 51 40 29 20 16 9 8 10 12 15 20 24 29 33 39 42 44 47 48 48 47 43 40 38 36 34 32 30 28 25 22 20 22 19 17 21 14 12 12 6 10
57 53 51 46 34 25 17 13 9 8 9 13 17 21 24 26 28 30 33 33 40 43 47 44 42 40 37 35 32 29 27 25 25 23 25 21 19 14 11 15 13 11 13 15
52 49 46 40 27 20 13 11 10 9 11 15 17 18 22 21 22 24 26 27 29 34 37 38 35 32 28 27 28 28 27 27 23 25 22 21 15 12 15 14 13 16 15 12
47 45 42 34 21 15 11 10 8 8 11 14 19 21 21 20 19 19 19 19 22 24 26 28 29 31 32 31 31 31 29 27 30 25 25 24 15 15 17 20 19 19 17 13
43 42 37 28 17 12 10 8 9 12 15 18 22 23 22 19 17 15 14 14 17 20 24 27 28 28 31 33 33 29 30 34 32 27 24 19 16 19 23 21 21 14 18 16
39 38 31 22 11 8 8 7 13 16 20 24 25 24 22 19 17 15 17 18 19 20 20 23 29 35 35 33 29 34 38 34 30 23 20 22 17 22 24 20 16 15 16 18
36 34 25 14 5 5 9 13 17 20 25 29 26 23 20 17 15 17 17 15 13 14 15 15 26 40 40 33 33 39 36 30 24 22 19 19 23 22 21 20 15 14 14 18
32 29 18 9 3 8 11 15 18 25 31 29 25 22 18 15 15 24 21 22 22 19 23 25 31 38 42 44 40 37 34 30 25 22 21 21 21 17 16 15 15 14 14 15
29 23 14 7 7 10 12 17 21 29 33 30 27 24 20 21 19 23 27 27 25 31 31 33 33 37 42 42 40 38 37 30 23 20 23 18 16 15 16 15 15 14 14 16
25 19 10 8 9 13 15 18 24 32 33 30 28 26 24 23 24 26 29 30 30 32 33 34 38 39 41 43 44 38 32 27 22 24 18 17 19 17 17 18 17 16 14 13
21 16 10 7 12 14 15 20 26 34 34 31 30 28 26 26 27 29 29 33 35 37 37 41 39 36 34 35 35 34 32 31 27 23 23 22 20 17 17 17 17 16 16 17
18 15 10 7 11 16 19 22 27 34 36 34 32 32 30 29 30 32 33 36 35 35 37 41 44 42 40 42 41 41 37 31 29 27 26 24 23 22 21 20 20 19 19 19
17 13 11 7 11 16 19 24 28 33 37 37 36 35 35 34 33 34 34 36 36 36 37 38 41 42 42 43 41 36 37 35 33 32 28 28 28 27 26 24 24 25 25 25
15 13 11 9 10 12 20 28 31 34 38 40 40 40 38 39 38 37 35 35 37 38 39 39 39 39 40 42 37 39 38 36 33 30 28 30 31 29 29 28 28 29 30 31
16 12 14 12 10 11 14 25 33 36 39 42 45 45 44 43 43 43 41 39 39 39 38 38 38 38 39 42 42 40 40 39 36 34 32 32 31 31 31 32 32 33 35 36
18 15 14 15 14 11 13 19 24 33 42 44 48 51 51 50 49 48 47 47 46 45 44 43 42 41 41 43 45 47 46 44 43 42 39 37 37 37 37 37 38 39 40 41

GFSNW_250_spd_054.txt.gz
Wind_Speed
98 94 89 87 84 77 66 54 42 35 26 10 5 19 22 33 41 42 40 37 35 34 38 40 42 42 39 38 38 39 38 41 43 46 49 50 55 59 59 56 49 42 44 31
94 91 86 84 82 74 64 50 38 30 22 8 6 22 29 37 40 39 35 31 30 33 35 34 36 34 32 31 31 33 34 37 41 42 41 37 35 29 24 22 25 31 25 39
91 87 83 82 79 71 60 47 35 26 15 8 8 21 31 36 40 39 36 31 28 31 34 34 34 31 27 25 28 29 31 34 32 26 24 21 19 15 13 18 23 29 30 42
88 84 80 80 76 68 58 45 34 25 15 7 7 18 28 39 40 37 34 29 27 29 31 32 31 28 25 25 24 26 28 25 20 19 19 17 13 10 16 21 26 33 29 33
85 82 78 76 73 65 55 42 33 24 15 8 4 15 29 39 41 38 34 29 27 28 30 31 29 27 26 24 23 22 20 20 22 21 17 12 10 15 17 22 22 27 21 21
82 80 76 75 70 62 53 39 30 22 15 4 5 10 21 31 32 33 31 29 28 30 31 32 33 29 27 24 22 22 21 21 19 17 13 11 12 13 15 14 19 20 16 15
78 77 73 73 66 61 51 37 27 20 13 2 9 13 24 32 34 34 33 32 29 30 31 31 34 32 28 25 23 22 20 18 16 13 12 10 10 12 10 13 10 5 5 9
75 74 71 69 62 58 50 37 23 18 11 3 10 18 27 37 39 38 36 34 29 28 31 35 38 35 32 28 25 23 21 19 15 14 11 9 9 9 12 15 4 2 3 6
71 71 68 66 59 54 45 34 22 16 11 5 12 20 28 37 41 40 38 37 35 32 31 35 38 37 35 32 28 25 22 19 17 13 12 11 10 12 15 12 5 3 4 7
68 68 66 61 56 51 42 29 20 13 10 8 12 19 27 34 40 42 41 41 40 36 33 33 37 38 37 33 30 26 23 21 18 15 16 14 12 15 16 12 6 6 11 9
64 65 62 57 53 48 39 25 17 13 10 9 11 18 23 31 38 41 40 41 40 38 35 32 31 34 38 36 32 27 26 24 22 21 20 17 15 17 15 12 8 10 11 5
62 62 58 54 48 45 37 24 15 10 9 10 12 15 23 30 35 37 39 41 42 42 39 35 33 31 32 32 33 30 27 26 26 23 21 18 17 19 16 15 16 13 13 10
59 59 54 51 43 40 32 20 14 8 9 10 12 14 19 24 29 32 35 37 39 40 40 38 36 34 31 30 30 28 28 27 27 24 21 18 17 19 17 14 12 13 12 10
56 55 50 47 42 37 28 18 12 8 11 12 13 15 19 22 24 24 27 31 34 37 38 39 40 38 34 30 29 28 31 31 27 24 20 20 22 21 18 15 13 13 14 12
53 50 47 44 39 34 24 14 10 7 10 10 13 15 17 18 21 24 25 28 30 32 36 39 39 38 37 35 33 34 31 28 26 22 20 26 24 20 13 13 17 18 16 15
49 45 42 39 35 29 17 11 7 8 10 10 15 17 19 20 20 20 21 23 26 27 28 30 33 36 39 36 35 31 29 28 25 23 28 24 21 15 13 15 19 15 15 14
45 41 38 34 29 21 9 8 8 10 12 14 17 20 22 20 20 18 18 19 20 21 23 27 30 32 35 39 36 33 30 29 26 28 28 26 19 17 13 14 17 19 16 12
41 37 34 30 23 15 9 8 10 13 17 21 22 21 20 18 15 13 11 12 13 16 18 21 25 31 36 34 34 34 34 32 32 32 26 20 19 15 16 18 17 20 15 13
38 34 29 25 18 14 9 9 13 17 21 25 24 20 16 15 13 12 11 10 9 9 13 18 29 31 30 36 35 33 33 33 34 29 24 18 15 15 21 21 17 16 16 13
35 30 26 22 15 12 10 11 15 20 25 26 23 19 15 14 16 15 15 12 10 9 12 17 32 33 36 34 34 35 36 37 33 28 22 19 20 22 19 19 20 19 19 16
32 24 21 18 14 11 12 14 18 25 27 25 23 19 16 16 20 19 17 17 15 17 19 31 36 37 32 31 32 31 33 29 28 25 23 17 18 18 19 17 18 19 20 18
26 21 19 17 10 10 13 16 20 29 29 27 24 22 20 20 20 22 21 20 21 26 27 31 35 35 35 36 35 35 37 38 33 25 18 20 24 23 19 18 18 19 21 20
22 17 16 15 11 12 17 21 24 32 32 29 28 26 24 23 26 26 24 23 25 25 32 38 36 38 41 42 40 40 40 33 26 24 26 29 27 26 22 21 21 22 20 20
20 16 15 13 12 12 16 21 26 31 36 33 31 29 28 27 28 29 28 27 28 30 31 33 34 39 41 44 44 40 37 36 35 36 34 32 33 28 27 26 24 25 24 22
20 16 17 13 11 11 14 23 29 32 36 38 35 34 33 32 32 31 32 32 32 34 34 36 36 38 39 40 40 42 42 42 43 41 36 38 34 31 29 28 27 28 28 27
20 18 17 16 12 12 17 19 28 35 38 41 40 38 37 37 36 36 35 35 34 36 37 38 39 41 43 46 47 45 44 48 43 39 40 39 37 36 33 32 32 32 30 31
22 20 19 19 17 15 13 17 24 31 38 42 43 44 42 40 40 40 40 40 40 40 41 42 44 44 46 46 45 46 46 45 44 44 47 45 42 38 35 33 34 35 35 37

GFSNW_250_spd_057.txt.gz
Wind_Speed
100 94 92 90 86 84 80 72 59 46 35 26 19 3 7 16 28 38 43 41 38 38 34 33 34 37 34 32 32 32 32 35 35 33 36 37 39 41 44 48 51 56 57 64
96 90 89 87 84 81 76 69 56 42 31 23 19 10 10 17 27 37 41 38 33 29 28 30 30 31 29 29 29 31 31 31 30 33 36 40 43 46 49 51 53 56 53 61
92 88 87 83 81 78 73 66 53 39 28 21 17 10 6 23 34 35 37 35 32 33 35 37 36 33 31 32 30 27 28 29 28 30 32 34 37 39 41 45 50 47 46 45
87 84 84 80 78 75 70 63 50 36 27 19 15 10 12 28 34 35 33 29 31 33 33 33 32 31 31 28 26 28 27 25 26 28 31 33 35 33 31 32 27 26 21 31
82 81 81 78 75 72 66 59 48 35 24 18 12 5 16 26 34 32 29 28 30 33 34 34 35 33 29 25 24 23 22 23 25 25 25 25 24 23 22 17 17 18 22 18
78 78 79 75 72 69 64 54 45 32 22 16 10 4 11 25 32 33 30 28 29 31 33 35 34 31 28 25 22 19 17 19 21 25 26 25 22 17 13 14 16 17 12 17
75 75 75 72 69 66 62 54 43 30 19 14 5 5 15 22 29 31 29 28 29 31 32 33 31 29 26 22 18 17 21 24 28 26 23 18 14 13 11 15 12 11 12 12
71 71 71 69 67 62 57 51 40 29 17 9 2 10 20 32 34 31 29 28 29 31 33 34 33 31 27 23 21 24 27 28 24 21 17 15 12 9 10 9 10 10 10 4
68 67 67 65 65 61 54 48 39 27 16 6 3 13 22 31 32 33 31 29 28 30 32 32 34 34 29 25 26 27 25 23 21 18 16 12 8 6 8 11 14 7 4 9
64 64 63 62 60 59 53 44 37 26 16 6 6 13 21 29 32 33 33 32 29 28 30 32 35 36 32 29 28 27 25 23 21 19 14 10 9 7 11 13 14 7 1 3
60 61 60 58 56 54 51 44 34 24 13 6 6 13 21 30 36 37 36 34 33 30 28 29 32 35 34 31 29 28 26 24 22 20 15 12 10 9 15 18 17 14 5 6
57 58 57 55 52 51 46 42 33 23 15 9 9 11 19 25 31 35 33 36 35 33 30 28 30 34 35 34 32 29 28 27 24 20 17 14 12 13 18 22 19 14 11 12
55 54 54 52 50 46 42 38 30 21 16 13 10 12 16 23 28 31 33 32 32 34 33 30 28 28 32 35 35 33 30 28 25 21 17 16 16 15 18 20 17 17 15 11
52 52 50 50 47 43 38 35 25 17 15 15 13 13 17 19 24 26 28 31 33 34 36 35 32 28 28 29 31 33 33 30 26 21 19 20 19 18 19 18 15 14 15 14
50 49 47 46 43 39 35 31 22 15 14 14 14 16 17 18 20 23 27 30 33 35 37 38 37 34 32 30 30 28 26 25 24 25 22 22 21 22 23 19 14 12 16 16
48 46 45 43 40 35 32 26 18 15 14 14 15 15 16 18 20 22 24 26 28 32 35 37 37 36 37 36 34 28 27 26 26 25 24 24 23 27 22 14 9 13 16 14
45 42 43 41 36 31 26 20 17 14 15 16 15 14 17 18 18 20 21 21 23 26 29 31 34 38 40 41 35 30 31 31 30 28 26 25 23 26 22 12 12 15 15 12
41 39 39 37 31 27 21 17 13 13 15 17 14 15 16 16 17 16 17 19 20 22 24 26 30 36 42 39 35 39 34 33 30 29 25 22 27 25 17 15 16 13 13 14
37 35 34 31 26 20 16 14 13 13 16 14 14 15 19 19 17 18 19 18 17 19 21 24 29 34 34 35 41 39 35 33 33 27 25 28 27 18 15 18 18 17 16 14
35 32 30 26 19 16 13 12 11 14 16 16 18 21 19 17 15 15 14 14 12 15 19 23 26 27 32 38 37 37 37 36 30 28 28 28 20 19 18 20 19 19 17 16
32 30 27 21 16 13 11 11 12 15 16 19 22 21 18 16 16 16 14 13 10 11 13 18 26 30 27 28 34 36 37 31 29 29 32 26 24 18 20 22 21 18 18 18
28 27 23 17 12 11 10 10 15 19 20 23 24 21 17 16 16 16 14 14 14 16 19 24 29 26 24 28 31 32 30 32 33 33 31 28 23 23 22 19 21 19 17 17
26 23 19 14 12 11 10 13 17 20 23 25 25 21 19 18 17 17 17 16 19 22 26 27 26 26 27 30 31 31 32 34 37 35 31 26 25 25 27 24 22 20 19 18
25 21 16 13 11 10 10 13 19 23 28 28 27 25 22 21 20 19 20 19 20 25 27 29 29 30 35 37 37 37 37 36 39 37 30 30 32 31 31 28 26 23 23 23
25 21 17 13 13 11 11 16 22 25 32 33 31 29 27 26 24 24 24 22 22 23 26 28 31 38 42 42 41 41 39 40 35 36 32 35 35 34 32 30 30 28 26 25
23 21 17 14 14 14 14 17 20 24 33 38 36 33 32 30 28 29 29 28 27 28 30 28 31 38 43 44 44 44 43 42 43 40 38 38 38 38 38 35 36 36 33 31
26 23 19 16 16 16 16 16 20 23 29 37 41 39 37 34 33 33 34 34 33 34 34 35 36 35 36 38 43 44 43 43 41 41 40 41 42 42 40 41 43 42 39 37

GFSNW_250_spd_063.txt.gz
Wind_Speed
102 98 93 89 86 81 79 75 71 71 64 57 43 29 24 15 10 7 15 27 35 38 35 35 32 31 34 34 35 37 40 45 51 58 65 69 69 71 75 76 73 69 66 64
96 91 88 85 83 78 76 74 69 67 60 53 40 28 22 12 6 9 22 28 31 31 30 27 26 27 28 29 29 29 31 34 40 46 53 57 64 69 66 66 65 67 70 69
90 86 83 81 78 74 71 68 66 65 57 47 34 23 21 12 2 15 24 30 32 31 28 27 28 31 30 28 27 27 28 31 35 38 42 50 55 55 56 59 58 61 68 66
85 83 79 77 74 69 69 65 61 60 53 44 30 19 18 10 7 17 28 31 27 27 27 28 29 27 26 25 26 27 27 28 30 31 33 37 44 49 55 53 48 54 49 54
82 79 76 73 71 66 64 63 58 55 49 40 27 17 13 8 6 17 25 26 28 26 25 25 25 26 27 28 28 26 26 25 24 25 27 29 32 35 38 39 40 42 41 35
79 75 72 67 65 61 60 59 55 51 45 37 24 13 7 2 4 16 19 23 24 27 29 29 28 28 27 29 29 28 28 28 28 28 28 28 28 28 29 30 31 33 34 32
77 74 69 64 61 58 57 54 50 47 42 34 23 10 1 9 11 17 19 20 24 28 31 32 30 31 30 28 27 27 27 26 27 27 26 26 25 27 28 29 31 32 31 32
74 73 67 61 58 55 53 50 48 43 40 31 22 11 8 10 16 18 18 19 23 28 31 32 30 29 29 28 26 25 25 23 24 24 25 24 25 27 27 29 30 26 22 24
73 70 65 59 57 54 50 46 44 42 37 30 22 12 10 13 17 20 21 22 25 29 29 29 28 28 27 26 24 24 24 25 25 25 25 24 25 26 23 23 21 21 22 24
73 68 61 59 56 53 50 46 42 38 34 30 21 15 13 14 19 22 23 25 28 31 32 33 31 30 28 27 26 23 22 23 23 22 21 23 24 23 22 20 19 19 21 20
72 66 59 55 55 53 49 45 39 37 32 29 22 16 16 17 17 26 23 26 28 31 33 35 35 33 30 28 25 24 22 21 22 27 29 27 23 21 18 16 14 16 21 16
68 62 55 54 51 50 49 43 37 33 31 27 24 16 19 21 22 23 28 26 28 31 34 35 36 35 33 30 26 24 24 26 29 29 27 23 21 19 17 12 12 17 20 16
63 57 51 50 50 47 47 44 36 31 30 27 24 17 21 23 26 29 29 29 27 29 32 34 36 36 35 31 28 27 28 30 29 28 26 24 21 18 16 12 13 17 21 21
58 53 49 47 47 46 45 43 37 31 29 25 23 18 19 23 26 30 32 33 30 29 30 33 34 37 38 35 32 32 32 31 30 29 26 24 21 19 18 15 13 17 21 22
52 49 46 45 44 44 44 41 37 32 28 25 21 17 19 23 26 25 27 31 35 32 32 31 34 36 38 40 38 35 35 34 32 31 28 25 24 21 20 18 14 19 22 23
51 46 43 42 42 42 41 37 33 31 27 24 20 18 19 23 26 27 28 32 34 35 35 34 34 33 37 41 42 37 37 37 35 33 30 27 26 23 23 20 18 18 22 24
48 43 40 39 40 39 37 34 30 28 25 21 18 17 19 23 26 30 32 33 36 38 39 38 37 36 35 37 41 42 42 40 38 37 34 31 28 25 26 23 19 19 23 23
44 41 37 37 37 36 32 30 26 24 21 18 16 16 20 23 25 28 33 35 37 37 39 40 39 38 41 39 38 43 45 44 42 41 37 35 32 29 28 25 22 21 23 25
41 38 35 35 33 31 29 26 23 21 20 16 14 16 17 19 22 24 27 29 30 32 35 36 40 44 44 47 42 41 41 41 41 40 37 35 32 30 28 25 23 25 26 25
37 34 33 32 31 28 26 21 19 18 17 14 14 16 18 20 22 23 25 26 27 29 31 33 35 41 45 46 45 48 45 40 38 35 34 32 30 28 27 27 26 25 27 23
33 31 31 30 28 25 22 18 17 16 14 13 14 16 19 21 20 21 22 22 23 24 25 28 31 33 35 37 41 46 47 44 41 39 36 33 32 30 27 26 25 24 26 26
31 27 29 26 25 23 19 16 14 14 13 13 15 16 18 17 18 19 18 16 16 17 18 21 23 25 28 31 32 37 43 45 45 43 39 35 33 32 30 26 24 28 26 24
28 26 26 24 23 21 17 15 13 13 13 14 16 18 18 18 19 19 17 16 15 14 16 17 18 19 23 24 27 33 36 42 44 44 40 38 35 33 30 28 30 31 29 25
25 26 25 22 21 19 16 16 16 15 15 17 17 18 20 19 18 18 18 17 15 15 15 15 14 18 24 25 24 28 31 35 40 43 43 41 40 37 34 32 35 32 30 29
24 26 25 21 21 19 17 18 17 16 16 18 20 21 22 21 19 19 19 18 18 17 17 16 16 19 24 25 23 27 30 32 37 42 44 44 42 39 37 35 38 35 35 34
25 27 24 23 22 19 20 20 19 18 18 19 22 24 24 23 21 22 22 19 17 17 19 18 18 19 22 24 25 28 31 33 35 38 39 41 40 39 39 36 38 37 38 37
28 26 23 24 23 21 21 21 21 20 19 21 24 26 27 26 26 24 24 23 22 20 20 20 20 21 22 25 26 29 30 32 34 37 38 38 37 38 37 38 40 42 42 40

GFSNW_250_spd_066.txt.gz
Wind_Speed
96 94 90 87 83 80 77 74 71 70 68 64 56 45 32 23 18 12 8 12 22 32 34 34 32 33 33 32 31 33 37 43 48 51 53 56 62 59 55 55 60 65 71 77
94 91 87 84 79 77 74 71 68 65 64 61 53 43 31 23 16 9 8 18 20 24 25 26 27 28 28 27 29 32 35 36 45 50 53 53 60 57 56 55 55 56 60 62
91 88 84 80 75 74 71 68 66 62 61 58 49 39 26 23 14 6 11 17 24 24 26 26 27 25 24 25 27 28 31 36 39 47 50 54 59 65 62 61 61 62 62 60
89 86 81 77 73 71 67 65 63 59 58 55 47 36 23 21 15 5 7 17 19 21 21 20 20 22 25 26 26 27 28 29 33 39 46 53 58 57 62 67 65 68 65 66
87 83 78 75 71 69 64 62 60 56 54 52 45 36 22 16 12 1 8 14 16 19 17 16 16 17 18 19 20 21 24 25 28 31 37 43 47 51 57 61 63 63 62 56
86 80 76 72 69 67 62 58 57 54 52 48 43 34 23 13 9 2 6 11 15 16 17 19 21 22 21 21 22 22 23 24 26 29 31 34 36 40 45 48 47 47 47 45
85 78 73 69 66 63 60 55 53 51 48 44 38 30 21 11 6 3 5 10 14 17 18 19 21 23 25 24 25 24 25 26 26 26 27 29 30 32 34 36 37 38 36 33
83 77 71 66 64 60 56 52 50 48 45 41 36 26 18 12 9 7 9 10 14 16 19 21 24 25 24 21 20 20 21 22 22 21 20 20 21 22 22 22 23 22 20 21
81 76 70 64 60 57 52 47 46 43 42 38 33 26 16 12 10 9 12 13 13 16 18 21 23 22 22 21 18 17 17 17 17 16 16 17 18 18 18 18 20 21 22 25
79 74 70 64 58 53 49 44 42 41 39 36 31 25 16 12 11 14 15 15 17 19 21 21 22 22 21 21 20 18 18 17 18 19 19 20 21 20 21 21 21 23 23 23
74 72 67 63 56 50 46 41 38 37 37 35 31 24 19 13 15 15 17 17 19 22 25 25 25 25 24 25 23 21 20 20 21 21 21 22 23 24 23 21 20 20 19 21
70 68 63 59 55 50 45 39 35 34 34 32 31 26 20 17 17 19 16 21 18 22 26 27 27 27 28 27 24 23 23 22 21 20 23 24 24 26 24 20 17 16 17 19
68 63 60 54 51 49 46 41 35 33 33 30 28 27 22 19 20 23 24 20 23 21 25 28 30 31 30 28 27 25 22 20 20 22 25 28 27 23 20 16 16 14 12 16
64 58 55 51 47 45 44 40 35 33 29 30 28 27 23 20 22 26 28 29 24 24 24 27 30 32 32 31 30 27 22 22 26 30 29 26 26 24 21 19 16 13 12 15
58 54 51 47 44 43 40 39 34 32 28 29 28 26 22 20 23 28 30 31 30 28 26 28 30 32 33 33 31 27 26 27 32 32 29 27 24 21 19 18 17 15 14 17
54 50 48 43 42 39 38 37 34 30 26 28 28 27 20 20 22 25 29 32 32 32 31 28 31 31 33 35 34 32 31 31 34 33 31 28 27 25 24 20 18 19 16 17
50 47 44 39 37 36 36 35 33 30 27 26 27 24 21 20 22 26 32 34 36 36 34 35 31 30 33 35 37 38 37 36 37 36 32 31 29 27 25 24 21 22 20 18
45 43 40 36 34 35 34 33 30 27 25 26 26 22 21 21 22 25 30 35 36 38 39 38 34 32 33 36 38 41 43 40 41 40 37 34 32 30 29 28 26 24 24 21
42 39 35 31 31 33 32 30 26 24 24 24 23 22 20 20 20 22 26 32 36 37 37 37 37 38 40 44 35 38 43 47 45 44 41 38 37 35 33 32 29 29 27 25
39 36 32 28 30 31 28 25 23 21 21 22 22 20 20 19 19 22 24 26 30 33 36 37 39 42 46 47 44 44 43 44 48 47 45 43 41 38 36 36 35 33 29 26
35 34 28 27 29 28 24 23 20 19 20 21 20 19 18 19 20 22 24 26 27 28 29 31 34 37 40 44 45 44 46 44 42 44 45 45 42 40 38 35 33 30 29 27
30 32 27 26 29 25 21 19 17 18 19 17 18 18 18 18 20 22 22 24 24 25 24 26 27 28 31 33 37 42 44 47 46 42 42 40 37 35 35 33 32 30 27 26
27 30 26 26 26 21 19 17 16 16 17 16 16 17 17 17 20 21 21 22 22 20 21 21 20 21 24 26 27 30 35 43 47 47 44 42 38 37 36 35 35 32 29 26
27 29 26 26 24 20 18 17 18 18 17 17 17 17 16 18 20 21 20 20 18 17 16 13 13 13 14 18 22 25 30 34 40 46 47 45 42 41 39 37 35 34 31 27
28 29 28 26 23 19 20 19 18 17 16 17 18 19 18 20 21 21 21 20 18 16 15 13 12 11 12 17 23 25 25 30 34 40 45 47 48 45 43 42 39 36 34 31
29 31 29 25 23 22 20 20 19 19 19 18 19 20 20 22 23 21 20 20 19 17 14 14 12 13 14 17 22 22 22 26 31 34 39 44 46 47 46 45 42 39 39 38
33 31 26 22 22 22 21 21 20 20 20 20 20 22 23 24 25 23 22 22 22 21 17 15 14 14 15 16 19 21 23 24 28 31 35 41 45 47 48 48 46 43 44 44

GFSNW_250_spd_069.txt.gz
Wind_Speed
105 101 95 90 85 83 76 72 71 68 64 63 59 53 43 33 27 21 16 11 15 24 29 29 28 30 28 27 32 34 35 35 39 39 39 39 44 47 51 56 58 64 73 81
103 97 92 88 84 81 74 70 67 63 61 59 57 50 39 30 24 18 12 12 15 15 17 21 23 22 23 28 28 30 33 34 35 36 38 39 44 49 50 55 55 57 59 65
101 93 89 87 83 80 71 67 65 61 57 53 52 48 37 27 20 17 9 8 13 15 15 15 15 19 20 24 27 30 33 34 32 35 35 36 40 45 48 51 51 53 53 55
96 89 86 85 82 78 70 65 61 57 53 50 48 44 35 25 19 13 7 4 8 11 11 13 17 18 19 20 22 26 31 31 31 32 35 37 39 39 41 47 50 49 47 46
92 86 85 83 80 75 69 63 59 55 49 46 45 41 33 23 17 13 8 3 6 7 13 15 16 17 17 16 17 18 22 29 33 34 38 40 41 42 41 44 46 45 44 40
92 85 84 79 75 71 67 62 56 53 48 44 42 39 32 20 14 10 7 3 4 8 10 12 15 16 18 20 20 20 21 23 27 33 36 42 43 45 47 49 48 46 47 47
94 88 83 77 73 68 65 60 54 49 46 42 40 36 31 20 13 9 4 3 2 6 9 11 14 16 17 18 20 21 22 23 25 27 31 35 41 45 48 51 54 54 53 53
93 88 82 76 71 67 63 59 53 46 42 39 37 33 29 20 11 8 5 3 4 5 7 9 11 14 16 16 17 18 19 20 21 23 25 28 32 38 42 46 47 48 48 45
86 83 80 75 68 65 60 56 50 46 39 36 34 30 26 21 11 6 6 6 5 5 7 10 13 14 14 15 14 14 15 16 17 18 20 21 23 26 28 30 32 31 30 30
80 78 76 72 67 61 57 53 47 42 39 33 32 28 23 18 13 9 7 7 9 9 8 9 13 15 16 17 16 11 9 12 14 16 17 18 18 19 20 20 20 20 21 22
77 73 71 68 64 58 52 49 45 39 37 33 29 28 23 19 14 13 12 10 10 11 11 14 18 18 19 19 18 17 16 16 18 18 18 18 18 19 20 20 20 19 19 20
73 70 65 63 61 55 48 45 42 37 33 33 29 27 23 19 16 16 16 14 12 13 14 17 21 23 22 22 20 20 18 16 17 18 20 20 20 21 20 19 19 18 19 19
70 67 62 58 56 52 45 41 38 36 30 31 28 28 23 19 18 17 21 20 18 16 15 18 22 25 25 25 25 22 19 18 18 18 20 21 23 23 22 21 22 21 19 19
68 65 60 55 51 48 44 39 36 34 30 30 28 27 24 20 19 18 22 26 24 20 20 19 23 25 26 27 27 24 22 22 20 20 21 23 23 23 25 25 21 19 18 17
65 62 57 51 46 43 42 38 35 33 29 28 27 28 25 21 19 22 24 27 29 27 23 21 22 26 27 28 28 25 24 22 19 20 21 23 27 28 26 23 21 19 18 16
62 56 51 47 42 41 39 37 36 33 27 27 26 27 24 22 22 22 26 27 32 31 28 25 24 23 27 30 31 30 28 25 21 23 25 30 30 28 25 24 22 20 18 16
58 50 47 43 40 37 36 34 35 32 29 26 26 26 25 22 23 23 25 27 29 32 33 31 27 25 26 30 35 32 32 29 25 28 32 32 31 29 28 26 23 20 18 19
52 47 43 38 37 35 34 33 32 29 27 26 26 25 23 22 22 23 24 28 31 34 36 36 32 28 29 35 33 29 35 33 31 32 36 35 34 32 30 28 26 24 22 21
48 44 40 36 34 32 32 32 30 27 26 27 25 24 22 22 21 21 24 27 29 32 36 36 34 36 37 36 33 34 38 39 38 37 39 39 37 36 33 32 30 28 27 25
44 41 35 33 32 30 30 30 29 25 26 24 23 24 22 21 19 20 22 24 28 31 32 32 38 41 41 42 38 36 36 40 42 42 41 42 41 39 36 34 33 32 31 30
42 38 32 30 29 28 29 28 26 24 23 23 24 24 22 20 20 21 23 24 26 27 33 35 36 36 37 42 44 41 40 40 40 42 44 45 44 43 41 39 37 35 34 34
41 36 30 28 26 27 28 25 24 22 23 24 23 22 21 20 21 21 22 23 24 25 26 29 30 31 34 35 37 40 44 46 46 42 41 45 47 46 44 43 41 39 37 37
39 34 28 27 25 26 25 22 22 21 22 22 21 20 20 19 20 19 19 20 21 22 22 23 24 26 27 29 31 33 36 38 42 45 44 43 41 45 47 47 44 41 37 35
36 33 28 27 25 25 23 22 21 22 21 21 21 20 19 18 19 20 20 21 21 21 22 23 22 22 22 23 25 26 29 30 33 39 46 47 44 40 40 39 38 37 37 36
34 32 30 28 25 25 23 22 22 21 20 20 20 19 19 20 22 22 23 23 23 22 21 19 18 17 15 15 16 18 23 28 32 35 39 44 46 45 42 39 39 39 39 39
34 33 32 27 25 24 22 23 23 21 21 21 20 20 21 22 24 24 24 24 23 21 20 18 15 12 12 11 11 14 19 22 25 30 34 39 46 46 46 45 43 42 42 41
36 33 31 27 25 24 22 23 23 22 22 21 21 21 24 25 27 27 26 25 25 23 22 20 16 14 13 13 15 16 18 20 22 24 29 34 41 48 50 50 49 48 47 46